ECMWFFLT2_250_spd_057.txt.gz
Wind_Speed
93 92 91 89 87 85 84 83 82 82 82 80 77 76 74 73 71 70 68 63 60 59 57 55 53 51 49 47 46 46 47 48 49 47 47 47 45 43 41 39 37 35 33 32 29 27 26 25 23 19 17 16 15 16 18 20 20 20 20 22 23 25 25
97 96 94 93 91 87 84 84 83 84 84 82 80 78 77 75 73 72 71 67 64 62 60 59 57 55 53 50 49 49 46 47 51 50 49 48 47 45 42 39 38 36 34 32 30 29 28 26 24 21 18 17 17 17 18 19 20 20 20 20 21 24 25
98 96 94 93 92 90 88 87 86 85 84 83 82 80 78 77 75 74 73 70 67 64 62 62 60 59 57 53 52 52 47 47 52 53 52 50 48 47 44 40 39 39 36 34 32 31 30 28 25 23 20 19 18 18 19 19 18 18 19 19 20 22 24
98 95 93 93 94 95 94 92 89 88 86 84 83 81 80 79 77 75 74 73 70 68 66 65 65 64 61 57 56 55 51 49 52 55 55 52 49 48 46 43 41 40 38 36 35 33 31 29 26 24 22 21 19 19 19 19 18 16 17 19 20 22 23
98 97 96 97 98 98 97 96 93 92 90 88 86 84 82 81 79 77 77 75 73 72 71 71 70 69 66 62 59 57 54 52 52 56 57 55 52 48 47 45 43 41 40 39 37 34 32 29 26 26 25 22 20 19 20 20 18 15 15 17 19 20 21
99 99 100 99 98 96 95 95 95 94 94 92 90 88 86 84 83 82 80 77 76 76 76 75 75 73 69 66 62 59 57 55 55 56 58 59 55 50 48 47 45 43 42 40 39 36 33 30 29 28 26 24 22 21 20 21 20 16 13 14 16 18 20
101 101 101 100 97 95 93 94 96 97 97 97 95 92 90 88 86 85 82 80 79 80 80 79 78 76 72 68 65 62 61 59 58 58 61 63 59 55 53 50 46 44 43 42 39 37 34 33 31 29 27 26 24 23 22 22 21 18 15 14 14 16 17
102 102 103 102 100 99 97 96 98 100 101 101 100 97 94 90 87 86 84 82 82 85 85 84 82 80 76 73 70 67 65 64 61 60 63 65 62 59 57 53 49 47 46 43 40 38 37 36 33 31 30 28 26 25 24 22 20 19 17 15 15 15 16
104 104 104 104 104 104 102 100 100 102 105 105 104 101 98 93 90 88 85 83 85 89 90 88 86 84 80 77 75 72 69 66 62 61 62 63 60 58 58 55 52 50 48 45 42 41 39 38 36 32 31 29 27 27 25 21 19 19 18 16 15 15 15
104 105 106 106 106 106 104 101 100 103 106 106 105 102 100 96 92 90 86 84 87 91 91 89 88 86 83 80 78 74 68 64 62 60 59 59 58 58 59 57 54 52 51 47 44 43 42 40 38 35 32 31 29 27 25 22 21 20 19 16 15 15 16
104 105 106 106 107 107 105 103 103 105 106 105 104 102 101 98 95 92 88 85 87 91 91 89 88 87 84 83 81 75 69 66 64 61 60 60 59 59 59 57 54 54 52 48 46 45 43 41 39 37 34 31 29 27 25 24 22 21 20 18 17 17 16
104 106 107 107 107 107 106 105 106 108 106 104 104 103 102 100 97 94 92 90 90 92 91 89 90 89 84 82 82 77 71 69 69 66 65 63 60 60 59 56 54 54 52 49 47 45 43 41 39 37 35 32 30 29 26 24 24 22 22 21 20 19 18
104 106 107 108 108 107 107 107 107 109 108 106 107 106 104 101 98 96 96 95 94 93 92 90 91 91 86 80 80 80 74 72 72 70 68 65 62 61 61 58 56 56 55 52 49 46 44 42 40 38 36 33 32 30 28 26 25 24 23 23 22 21 20
102 105 107 108 109 108 107 107 107 108 109 108 109 108 105 101 98 97 97 98 98 95 92 92 93 94 90 82 78 81 79 75 75 74 71 69 67 65 64 62 59 59 58 55 51 48 46 44 41 39 38 36 34 32 29 27 26 25 24 23 22 22 22
100 103 106 108 110 110 109 107 107 108 109 110 111 110 107 103 99 98 100 102 103 100 96 95 95 95 93 86 79 82 85 81 78 78 75 73 71 69 66 65 62 61 60 58 55 52 49 46 43 41 40 37 35 32 29 27 27 26 26 24 23 23 24
96 100 104 108 110 111 110 108 108 109 110 112 113 111 108 106 103 102 104 107 108 106 101 99 99 97 96 93 87 85 87 86 83 81 80 76 74 71 69 67 64 62 61 60 58 55 52 50 47 44 42 39 36 34 31 30 29 28 27 27 26 25 26
92 97 103 106 110 112 110 107 108 111 112 113 114 113 111 109 107 106 108 110 112 110 105 103 103 101 98 98 95 89 88 89 87 84 83 80 77 74 71 68 65 64 63 61 59 56 54 52 50 46 43 41 40 38 36 35 35 32 30 31 32 30 29
89 94 100 104 107 109 107 107 109 112 113 114 115 115 113 112 111 110 111 113 113 111 107 105 105 103 99 99 98 93 90 91 90 87 87 85 81 77 74 71 68 67 65 61 56 55 54 52 50 48 46 43 41 39 37 38 40 39 35 34 36 37 35
88 92 96 99 102 104 104 107 110 112 112 113 113 114 114 115 115 114 113 114 113 110 108 107 107 105 102 100 99 97 95 94 92 90 90 89 85 81 78 74 72 71 69 62 55 52 54 53 52 51 48 45 41 39 38 39 41 41 39 39 40 40 38
86 89 92 94 95 98 101 106 110 111 112 113 113 114 116 117 117 117 116 114 113 111 110 109 108 106 104 102 101 99 98 96 95 93 93 92 89 85 81 79 77 74 73 69 62 56 54 54 54 52 50 46 43 42 42 42 42 42 42 43 43 41 38
83 86 89 91 91 93 97 103 108 110 111 112 113 115 117 118 117 117 118 116 114 113 112 110 108 107 106 105 102 100 98 98 97 96 96 95 92 89 85 82 81 78 76 75 71 66 60 56 54 53 53 52 49 48 48 45 43 43 43 44 45 43 41
79 81 85 88 89 90 93 98 103 108 111 112 113 115 117 117 117 117 118 117 116 115 114 112 109 107 108 106 103 100 99 100 99 98 98 98 96 93 89 85 84 82 80 77 76 73 68 63 58 55 56 56 54 53 52 49 47 46 46 46 48 48 47
75 76 79 83 87 88 90 94 98 104 109 112 114 115 117 117 118 118 119 118 117 116 116 114 110 109 109 108 105 103 101 101 101 101 102 102 101 98 93 89 87 85 83 80 78 76 73 71 67 61 58 57 56 56 57 53 51 50 50 51 53 53 51
70 72 75 80 83 85 88 92 95 100 105 110 112 114 115 116 118 119 119 118 118 117 117 116 112 111 111 110 108 106 103 102 103 104 106 106 105 101 97 93 89 87 86 84 82 80 77 75 72 68 63 59 56 57 59 57 53 53 55 56 57 56 53
65 67 71 76 79 81 85 90 93 96 101 106 108 110 113 116 118 119 119 118 118 118 118 117 115 113 112 112 112 110 107 105 105 106 108 109 107 104 101 97 92 89 88 86 85 83 81 78 75 72 69 66 61 58 60 60 57 58 61 61 59 57 53
59 63 67 72 75 77 81 86 91 94 98 101 103 106 111 116 119 119 119 117 117 118 118 118 117 115 113 113 114 113 111 109 107 106 108 109 108 106 104 101 97 93 90 88 87 86 83 81 78 75 72 72 69 64 62 63 62 63 64 63 60 58 55
54 58 63 67 71 73 77 82 87 90 92 94 98 103 109 115 118 119 119 118 117 117 118 118 118 117 116 115 115 116 115 112 109 106 107 108 109 108 106 104 101 97 93 89 88 88 86 83 81 79 76 75 74 69 66 66 67 67 65 63 61 60 58
50 54 59 63 67 70 74 77 81 84 87 90 95 101 106 112 116 117 118 117 117 117 118 119 119 119 118 117 117 117 117 115 112 109 108 109 110 111 109 107 104 101 96 92 89 88 87 86 84 81 79 77 75 73 71 71 71 69 67 64 62 60 58
47 51 56 60 63 67 70 73 76 80 83 88 93 97 102 107 112 115 116 116 117 118 119 119 119 120 120 119 118 118 118 117 115 112 110 110 111 111 110 108 106 104 100 94 90 88 88 88 86 84 82 80 77 76 75 74 73 70 68 66 64 61 58
44 47 52 56 60 64 67 69 73 77 80 84 88 92 97 102 108 112 114 115 116 117 118 119 119 120 120 120 119 119 119 118 117 115 113 112 112 111 110 108 107 105 102 96 91 88 88 87 87 86 84 82 80 79 78 77 74 71 69 67 65 63 61
41 44 48 52 57 61 64 67 70 74 77 80 84 88 93 98 104 109 112 114 115 116 117 118 119 119 120 121 120 120 120 120 119 117 116 115 113 111 110 109 107 105 102 98 92 89 87 86 85 85 85 84 82 81 80 78 76 73 70 68 66 65 63
39 42 45 49 53 56 61 64 68 71 73 76 80 85 90 94 100 105 109 111 113 114 115 117 118 119 120 122 122 121 121 121 121 119 117 116 115 112 111 111 109 105 102 99 95 90 86 84 83 83 85 85 84 82 80 79 77 75 71 68 67 66 64
36 40 43 46 48 52 56 61 64 67 70 72 76 81 86 91 96 101 106 109 110 111 113 115 116 118 120 122 123 123 122 122 121 119 118 117 117 115 114 112 110 107 103 100 97 93 88 85 83 83 84 85 84 82 81 80 78 75 71 68 68 67 65
34 37 40 42 44 48 52 56 60 63 66 69 72 77 82 88 93 98 102 105 107 109 110 112 114 116 119 122 124 124 123 122 121 120 119 119 119 118 117 113 110 108 105 100 98 95 90 87 85 82 81 83 84 83 82 81 79 76 71 69 68 66 65
32 34 37 38 41 44 48 52 56 60 63 66 70 74 79 85 90 94 99 102 104 106 108 110 112 114 117 121 124 124 124 123 122 120 120 120 121 121 119 114 109 107 105 101 98 96 92 88 84 81 78 79 82 83 83 81 79 76 73 70 68 67 65
30 32 33 35 38 41 44 49 53 57 60 64 67 71 76 82 87 91 96 99 101 103 105 107 109 112 116 120 123 125 125 124 122 121 122 122 122 122 119 114 109 106 104 101 99 98 96 90 85 81 78 77 78 80 82 82 80 76 73 70 68 67 66
28 30 31 32 35 38 41 45 50 53 57 61 65 69 73 78 84 88 93 96 97 99 101 103 106 110 115 118 122 124 126 125 123 122 122 123 122 121 118 113 108 106 104 101 99 99 99 96 90 85 81 79 78 78 80 81 79 76 73 70 67 65 63

ECMWFFLT2_250_spd_060.txt.gz
Wind_Speed
87 87 87 87 87 86 85 83 82 82 82 81 81 80 79 77 76 74 71 68 64 62 61 60 59 57 56 54 50 48 46 44 42 43 45 46 45 42 40 39 39 39 37 33 32 31 29 27 25 23 22 20 20 20 21 22 22 22 24 25 26 25 23
91 90 90 90 91 90 88 86 85 83 83 83 83 82 80 78 76 75 74 72 69 67 66 65 64 63 61 58 54 51 49 46 42 42 44 48 47 43 40 39 39 39 38 35 34 33 31 28 26 25 23 21 21 21 21 23 23 23 23 24 26 27 25
96 94 93 93 92 90 88 87 86 85 85 86 85 83 81 79 77 76 76 75 74 73 73 71 68 65 61 57 53 51 51 48 44 41 43 47 47 44 41 40 40 40 38 36 35 34 32 30 28 27 25 22 21 21 22 23 23 23 23 24 26 27 27
100 98 97 96 94 91 89 88 88 88 88 88 85 83 82 81 79 78 78 79 79 79 76 72 68 64 60 56 52 50 51 50 46 42 42 46 47 44 43 42 42 41 38 36 36 35 34 32 29 28 26 23 22 22 22 23 24 24 24 24 25 26 28
102 100 100 100 97 95 94 93 91 90 90 89 86 84 83 82 81 81 80 81 83 81 76 72 69 65 62 60 55 52 52 52 49 44 43 45 46 45 45 44 44 42 39 37 36 36 36 33 31 29 27 24 23 23 23 24 24 25 25 25 24 24 26
103 102 103 102 100 99 99 97 94 91 90 89 87 86 85 83 83 82 81 83 85 82 76 74 72 68 66 63 58 55 53 53 53 48 45 45 46 46 46 46 46 44 42 40 39 38 37 35 33 31 29 26 24 23 24 25 26 25 25 25 25 24 24
104 104 104 103 102 102 102 101 98 94 91 89 88 87 86 85 85 83 83 86 86 82 79 77 74 72 69 65 61 57 55 54 54 52 48 46 46 48 49 49 47 46 44 43 41 39 37 36 34 32 30 28 26 25 26 26 27 27 26 26 25 24 24
105 106 106 105 103 103 102 102 101 99 96 93 91 89 88 88 87 86 86 87 87 83 81 80 77 75 71 68 65 61 58 56 55 55 52 49 48 50 51 51 49 48 46 44 43 41 39 37 35 33 32 31 29 28 27 27 27 27 27 26 25 25 24
107 108 108 107 105 104 103 103 104 103 100 98 96 94 92 90 90 89 88 88 87 85 84 83 80 77 74 71 68 65 62 59 57 57 57 54 52 52 53 53 52 51 49 47 45 43 41 39 37 35 34 33 32 31 29 27 28 27 26 25 25 24 23
109 109 110 109 107 106 105 104 105 105 104 102 100 98 96 93 91 90 89 89 89 87 86 86 83 80 76 73 71 68 65 63 61 60 60 58 55 53 53 53 54 53 52 51 49 45 43 42 40 38 36 35 35 33 30 28 28 27 26 24 24 24 24
110 110 110 110 108 106 105 105 105 106 105 105 103 101 99 96 94 92 91 91 92 90 89 88 86 83 78 74 72 71 69 67 65 63 61 60 57 55 54 53 54 54 54 55 53 48 45 44 43 40 39 38 37 34 32 30 29 28 26 24 24 24 24
111 111 111 111 109 107 106 106 106 106 106 106 105 104 102 100 98 95 93 93 93 93 92 90 88 84 79 74 74 75 73 71 68 65 63 62 60 59 58 56 55 56 56 56 55 51 47 46 44 43 41 40 38 36 33 32 31 29 27 25 24 23 23
112 112 112 112 111 109 108 108 108 108 107 106 106 105 104 103 101 100 98 97 96 94 92 90 89 86 80 77 78 79 76 73 71 68 65 64 63 62 61 57 56 57 58 58 55 52 49 46 45 43 42 41 40 37 35 34 33 31 29 27 25 24 23
111 113 113 114 113 111 110 109 109 109 109 108 107 107 106 105 104 103 103 102 99 95 91 90 90 87 83 80 80 79 76 75 74 71 68 67 65 64 63 60 57 58 59 60 57 54 51 48 46 44 43 42 41 38 36 35 35 33 31 28 26 25 23
109 112 114 115 115 113 111 110 110 110 110 109 109 109 108 107 106 105 106 105 102 97 93 90 91 89 85 82 81 79 77 78 78 75 72 70 69 67 65 63 59 58 60 62 60 56 54 52 49 47 45 44 42 40 38 36 35 33 31 28 27 25 22
106 111 113 114 115 114 112 111 111 111 112 112 112 111 111 110 108 107 106 106 104 100 96 93 92 91 88 84 82 82 81 82 82 80 77 75 73 70 67 66 63 59 60 63 62 59 57 54 52 50 48 46 45 42 40 38 37 35 32 30 29 27 25
102 108 111 113 114 114 112 112 113 114 114 114 114 113 112 111 110 109 107 106 106 103 99 97 95 93 91 87 85 85 86 84 82 83 83 80 76 75 71 68 66 62 60 62 63 61 60 56 53 53 50 49 47 44 41 40 40 39 38 36 34 33 32
97 104 108 110 112 112 112 115 116 116 115 115 115 115 114 113 112 111 109 107 107 105 103 101 99 97 94 90 88 88 89 86 81 82 87 86 81 79 76 72 69 65 62 62 62 62 61 58 56 55 53 51 50 47 44 44 44 44 42 40 38 37 37
93 99 104 107 107 108 112 116 116 115 115 115 116 116 115 114 113 112 110 108 108 108 106 104 102 100 97 94 91 90 91 90 84 81 87 90 86 83 81 77 74 69 63 60 61 63 62 59 58 57 56 53 53 52 50 49 48 47 45 43 41 39 39
89 94 100 102 103 105 110 114 114 115 115 116 117 117 116 115 114 112 110 109 109 109 109 107 105 104 101 97 94 92 93 94 91 85 85 90 91 88 85 82 80 76 67 61 60 61 60 60 61 60 59 57 56 56 54 52 50 49 47 46 44 41 39
88 90 94 97 99 101 105 110 113 115 115 116 117 118 118 116 115 113 111 110 111 111 110 109 107 106 105 102 98 96 95 97 98 94 89 89 91 92 90 87 84 82 77 70 64 60 60 64 64 60 60 62 61 59 57 54 52 50 49 48 46 44 42
87 89 91 93 94 95 99 106 111 113 115 116 117 118 119 118 116 114 112 111 112 113 112 111 110 108 107 105 102 100 99 99 100 100 97 93 92 93 93 91 88 85 82 79 74 67 63 67 67 62 62 65 64 61 58 55 53 52 51 50 48 46 44
83 86 89 90 91 91 95 102 107 110 113 115 116 118 119 118 117 116 113 112 113 114 114 113 112 111 108 107 106 104 102 102 101 102 101 96 93 93 94 93 91 88 86 83 80 75 70 70 70 67 65 65 64 62 60 57 55 54 53 52 50 49 47
77 81 84 87 89 90 93 97 101 105 109 112 115 117 117 117 117 117 115 114 114 115 117 116 115 114 111 109 110 109 106 104 103 103 103 99 94 95 97 96 92 90 88 86 84 81 77 75 74 72 69 67 66 63 61 59 57 56 55 53 51 50 48
70 75 78 82 87 89 92 95 98 100 103 108 112 113 113 115 118 118 117 116 115 116 118 118 117 116 113 111 112 112 110 108 105 104 105 103 98 97 99 99 96 94 92 90 88 85 82 81 79 75 72 70 68 65 60 58 58 59 58 55 52 51 48
64 69 73 77 82 85 89 93 95 96 98 101 105 108 111 114 116 117 117 117 117 117 118 119 119 118 116 114 114 114 113 111 109 107 107 107 105 101 99 99 99 98 96 94 91 87 85 84 81 78 74 72 70 67 63 59 58 59 60 58 55 53 50
60 64 67 71 76 81 86 90 93 94 94 94 97 103 108 111 113 115 116 117 117 118 119 120 120 119 118 116 116 116 115 114 113 111 109 110 110 108 104 100 99 100 99 97 94 91 88 86 83 80 76 73 71 70 67 64 62 61 60 60 57 55 52
56 59 63 66 71 76 82 85 88 90 90 91 94 99 104 107 110 112 114 116 117 119 120 120 121 120 119 118 118 118 117 116 116 114 113 111 111 112 110 105 102 101 101 99 97 95 91 88 85 83 80 75 73 73 71 68 66 65 63 61 58 56 55
52 55 58 62 67 71 76 79 83 85 87 89 92 96 99 102 106 109 112 114 116 118 119 120 121 121 120 120 120 120 119 119 118 118 116 114 113 113 113 110 105 103 103 101 100 98 96 91 88 86 84 79 77 76 74 70 68 68 67 63 61 59 57
48 50 54 59 63 67 70 74 77 80 82 84 88 92 94 97 100 105 108 111 114 117 118 120 121 121 121 121 121 122 121 121 121 120 119 118 116 114 114 113 109 107 105 103 101 100 98 95 91 89 87 84 80 78 77 73 71 69 68 65 63 63 61
43 46 50 55 59 62 66 69 72 74 76 79 83 87 90 93 96 100 104 108 111 115 117 119 121 121 121 121 122 123 123 122 122 122 121 120 119 117 115 115 113 111 108 106 104 101 99 97 95 92 90 88 85 81 79 76 72 69 67 65 64 65 64
40 43 46 50 54 57 60 64 67 69 71 74 77 81 85 89 92 96 100 104 108 112 115 117 120 121 121 121 122 124 124 124 123 123 123 122 122 120 118 116 116 115 112 109 108 105 101 99 97 95 93 92 90 87 83 79 75 70 67 65 64 64 64
37 39 42 45 48 52 55 58 62 65 67 69 71 75 80 85 88 91 95 99 103 108 112 115 118 120 121 121 122 123 125 124 124 123 124 124 124 123 121 118 117 117 115 112 111 109 106 102 100 98 97 95 94 93 90 86 81 77 73 70 67 66 65
35 37 38 41 44 47 50 53 56 60 62 65 67 70 75 80 84 87 91 95 99 103 107 111 115 118 119 120 121 123 124 124 124 124 125 125 126 125 123 120 118 117 117 115 113 111 108 105 102 101 100 98 97 96 94 91 87 83 81 78 74 72 70
34 35 36 38 40 43 46 49 52 55 58 61 63 66 70 74 79 83 87 91 95 99 103 106 111 115 118 119 119 121 123 124 124 125 126 126 127 127 125 122 120 118 117 116 115 113 110 107 104 103 102 101 99 97 96 94 90 87 85 83 81 79 76
32 34 35 36 38 40 42 45 48 52 55 57 60 63 66 69 73 78 82 87 91 96 99 102 106 111 116 118 118 119 122 123 123 125 127 127 128 128 127 124 122 120 118 116 117 116 114 111 108 106 104 102 100 99 98 96 93 91 88 86 84 82 80
31 32 34 35 36 37 39 42 45 49 52 54 57 59 62 66 69 73 78 83 88 93 97 99 101 106 112 116 117 117 120 122 123 125 127 128 128 128 127 125 123 122 120 118 118 118 117 115 112 110 107 105 102 100 99 98 96 93 91 88 87 84 82

ECMWFFLT2_250_spd_063.txt.gz
Wind_Speed
91 91 91 91 90 89 88 87 86 84 83 82 81 80 79 78 77 76 74 72 70 67 63 60 57 54 53 50 45 40 38 37 36 34 33 32 31 31 31 33 35 36 35 34 33 32 31 29 27 24 23 22 22 22 22 24 25 24 24 26 28 29 29
93 93 93 92 92 92 90 88 87 86 84 83 82 81 79 79 79 79 78 75 72 69 64 61 58 55 54 52 48 45 41 38 37 37 35 33 32 32 32 33 35 36 36 36 36 34 32 30 28 26 25 24 24 23 23 24 25 25 24 25 28 29 29
95 94 94 94 94 93 91 90 89 88 87 85 83 82 80 79 79 80 80 77 73 70 66 63 60 57 55 54 51 49 45 41 40 39 37 34 33 33 34 36 37 38 37 38 39 37 33 30 30 29 28 26 25 24 24 25 25 25 24 25 27 29 29
97 96 96 97 95 93 92 91 91 91 90 88 86 85 83 82 81 81 82 80 75 72 69 66 63 59 57 56 55 52 49 47 45 42 39 38 35 35 37 38 39 40 39 39 40 39 36 32 31 31 30 27 25 25 25 26 26 26 26 26 27 29 30
100 99 99 98 97 95 93 93 92 91 91 89 88 88 87 85 84 83 84 83 78 74 71 69 66 63 60 58 57 56 53 52 50 46 43 41 39 38 39 40 41 41 41 41 41 41 38 34 32 33 32 29 27 26 26 27 27 27 27 26 25 27 30
104 103 102 100 98 96 95 94 93 92 91 90 89 88 88 87 86 86 86 84 80 76 74 71 69 67 64 61 60 59 57 56 54 51 47 45 44 41 41 42 43 43 44 43 43 42 40 38 36 35 33 31 29 28 27 28 28 28 27 26 24 25 29
107 107 106 103 101 99 97 96 94 93 92 91 90 89 89 88 87 87 86 85 82 79 76 74 72 70 68 66 64 61 60 58 57 56 53 49 47 44 42 42 43 45 46 45 44 43 42 40 39 36 34 33 31 28 27 28 29 28 27 26 25 25 27
110 110 109 107 105 102 100 98 96 94 94 93 91 91 90 90 88 87 86 86 84 81 79 77 75 73 72 70 68 65 63 61 60 59 58 54 50 46 43 42 43 44 46 45 45 44 43 42 41 38 35 34 32 29 29 29 29 29 28 27 26 25 27
113 112 111 110 108 106 104 101 99 97 95 94 93 93 92 91 90 88 87 87 85 83 81 80 77 76 74 73 71 69 67 65 62 61 60 58 54 49 46 44 43 43 45 45 45 44 43 42 42 39 36 35 34 32 31 30 30 30 28 27 27 26 25
114 112 112 111 110 108 106 104 102 100 98 96 95 95 94 92 91 89 88 88 86 84 83 82 80 78 76 74 73 72 71 69 66 63 62 61 58 54 50 47 45 44 45 45 44 43 43 42 41 39 37 36 35 34 32 31 30 30 29 28 27 26 25
114 112 112 111 110 109 108 106 105 103 102 100 98 97 95 94 92 91 90 88 87 85 84 83 82 80 78 77 75 74 74 72 69 66 65 64 62 59 54 50 48 47 46 46 44 43 43 42 41 38 36 35 36 34 33 32 31 30 28 28 27 26 26
114 113 112 112 111 110 109 108 107 106 105 103 102 100 98 96 94 93 91 89 88 86 85 84 84 82 81 79 77 77 76 75 72 70 67 66 65 63 59 53 50 49 49 49 48 46 45 44 43 40 37 36 36 35 34 32 31 30 28 27 26 26 26
116 116 115 114 113 112 110 110 109 108 107 106 105 103 101 99 97 95 92 90 89 88 86 85 85 84 83 82 80 79 78 78 75 73 70 68 66 66 64 58 53 52 52 51 50 49 49 48 46 44 41 40 39 37 35 34 32 31 29 27 26 25 26
116 117 117 116 115 113 112 111 111 111 110 110 108 107 105 103 101 98 95 92 91 90 89 88 87 86 85 84 83 81 80 79 78 76 74 71 69 68 67 64 58 54 54 53 52 52 52 51 49 47 45 44 43 41 38 36 35 32 31 29 27 26 26
115 116 117 117 117 115 114 113 113 113 113 112 111 110 108 106 104 102 99 96 93 91 91 90 90 89 87 86 85 83 82 81 80 78 77 75 72 70 69 68 64 58 56 55 54 53 54 53 51 49 47 46 46 44 41 40 38 35 33 32 30 28 27
113 115 117 117 118 117 117 116 116 115 114 114 113 112 111 110 108 106 104 101 97 95 93 93 92 91 90 88 87 85 84 83 82 81 80 78 76 73 72 71 69 64 59 57 56 55 55 54 53 51 50 49 48 46 44 42 41 38 36 35 33 31 29
109 113 115 116 118 118 118 119 119 118 116 115 114 114 113 112 110 109 107 105 102 99 97 95 94 93 92 90 89 88 86 84 84 84 82 80 78 76 75 74 72 70 64 60 58 57 56 56 55 54 52 52 50 48 47 45 43 42 40 39 37 35 32
103 108 112 115 116 117 119 120 121 120 119 117 116 115 114 114 112 111 110 108 106 104 101 99 97 95 94 92 91 90 88 86 86 86 84 83 81 80 79 77 75 73 70 64 61 59 58 57 57 56 55 54 53 51 49 48 46 45 44 43 42 40 38
96 101 106 110 113 116 119 120 121 121 121 120 118 117 116 116 115 113 112 111 109 107 105 103 101 99 97 94 93 92 90 88 88 87 86 84 84 83 83 80 78 76 75 71 65 61 59 59 59 58 57 56 56 54 52 51 50 48 47 46 45 43 42
90 94 99 103 107 112 117 118 119 121 122 123 122 121 119 118 117 116 114 113 112 110 108 106 105 103 101 98 95 94 92 90 90 89 88 87 87 86 86 83 81 79 79 76 69 64 62 60 60 60 60 59 58 57 55 54 53 52 50 49 47 45 44
86 89 93 97 101 106 111 115 118 120 122 124 125 124 122 120 119 118 116 115 114 112 110 109 107 106 105 102 100 97 94 92 92 91 90 90 90 89 87 86 84 82 82 80 74 68 65 63 61 61 62 62 61 60 58 57 56 55 54 52 50 47 45
85 86 89 92 95 99 104 111 116 118 120 123 125 125 124 122 121 119 117 116 115 114 112 111 110 109 108 106 104 101 97 94 93 93 93 92 92 91 89 88 87 86 84 83 79 73 68 66 65 64 64 64 64 62 61 60 59 58 56 55 53 50 48
85 86 86 88 91 94 99 105 111 114 117 120 123 124 123 123 122 120 119 118 117 116 114 113 112 111 110 110 108 105 102 98 95 95 95 95 95 94 92 90 90 89 87 85 83 78 71 67 66 64 63 63 65 65 64 64 62 60 58 57 55 54 51
85 86 87 87 89 90 94 99 105 110 113 117 120 120 120 121 123 122 121 120 119 118 117 115 114 112 112 112 111 109 106 102 99 97 97 97 97 96 94 93 92 92 91 88 86 83 78 72 67 64 61 61 65 67 67 67 66 63 61 60 59 57 55
84 85 87 88 89 90 93 96 101 105 108 111 114 115 115 118 122 123 123 122 121 120 119 118 116 115 113 114 113 111 109 106 103 101 99 99 100 99 97 95 95 95 94 92 90 87 85 80 74 69 65 63 65 68 68 67 67 66 63 63 62 60 57
80 83 85 88 90 92 93 95 97 100 103 105 107 108 111 115 119 121 123 123 123 122 121 120 119 117 115 115 115 114 111 109 108 105 102 102 101 101 100 98 97 97 96 95 93 91 89 86 79 74 71 69 69 72 70 67 67 68 66 65 64 62 59
76 79 82 85 89 91 93 94 95 97 98 99 100 103 107 111 115 118 120 122 123 123 122 122 120 119 118 117 116 116 114 112 110 109 107 105 104 103 103 101 99 98 98 97 96 94 93 90 84 79 76 75 76 77 75 69 67 68 68 67 66 63 60
70 74 78 81 85 88 91 92 94 95 96 95 96 99 103 107 110 114 117 120 122 123 123 123 122 121 119 118 118 118 116 114 113 111 110 109 107 105 105 103 101 101 101 99 98 97 96 94 89 84 81 77 76 78 77 72 68 69 69 69 68 66 63
65 69 73 77 80 85 88 89 91 93 94 94 94 96 99 102 106 110 113 116 119 122 123 124 124 122 121 120 119 119 119 117 115 114 113 112 110 108 107 106 104 104 104 102 99 98 99 98 94 90 86 80 76 77 79 76 71 69 70 69 68 68 66
60 64 68 72 76 80 83 85 87 89 91 92 93 94 95 97 100 104 108 111 114 118 121 123 124 124 123 122 121 121 121 119 118 116 115 114 113 112 110 108 107 107 107 105 101 98 99 101 98 94 90 85 79 78 81 80 75 70 70 70 69 69 69
57 60 63 67 71 75 78 80 83 86 88 89 91 92 92 94 96 99 103 106 109 113 117 121 124 125 125 123 122 122 122 122 120 119 117 116 115 115 114 112 111 110 110 107 103 99 99 102 102 99 95 91 85 81 82 83 79 73 71 72 71 71 71
53 57 60 63 66 69 72 75 78 81 84 86 87 88 89 90 92 95 98 101 104 107 111 115 120 123 125 125 124 123 123 123 122 121 119 118 117 117 117 116 114 113 112 108 105 102 100 102 105 104 99 96 93 87 85 86 84 78 75 74 74 72 72
49 53 58 61 63 65 67 70 74 77 79 81 83 84 85 87 88 91 93 96 100 102 105 109 114 119 123 125 125 125 124 124 124 123 121 120 119 118 120 119 118 116 113 110 108 106 103 102 105 106 104 100 98 93 89 88 87 84 80 78 76 75 74
44 48 54 58 60 61 63 66 69 72 74 76 78 79 81 83 85 86 89 92 96 98 100 103 108 114 119 123 125 125 125 124 125 124 123 122 121 120 121 122 121 119 116 113 111 110 108 104 104 107 107 104 101 97 93 90 88 86 85 83 80 78 76
41 44 48 52 56 58 60 62 65 67 69 71 73 74 75 78 80 82 84 87 91 95 98 100 103 108 114 120 122 124 125 125 125 125 125 124 123 123 122 123 123 122 119 116 114 113 112 109 105 105 107 106 103 100 96 92 89 87 88 87 84 81 79
39 41 44 47 51 54 56 58 60 62 64 66 68 70 71 73 76 78 80 82 86 90 94 97 99 103 109 115 119 122 125 126 126 126 126 125 125 125 124 124 124 125 123 120 117 116 116 114 109 105 105 106 104 102 101 97 93 90 90 89 87 84 82
38 40 42 44 46 49 51 54 56 58 59 61 64 65 66 68 71 73 76 78 81 85 89 94 98 100 104 110 116 120 123 126 126 126 126 126 126 127 126 125 125 126 126 124 121 119 118 118 115 111 107 106 105 105 104 102 99 96 94 93 90 87 84

ECMWFFLT2_250_spd_069.txt.gz
Wind_Speed
93 92 91 92 92 92 91 88 86 84 83 81 79 77 76 76 76 74 72 69 66 64 62 60 57 55 53 52 50 49 47 46 44 42 41 40 37 35 33 32 31 30 29 27 25 24 24 25 25 26 26 27 26 25 24 24 22 21 21 23 26 29 30
94 93 92 93 93 93 92 89 88 87 87 85 82 80 78 78 76 75 72 70 68 67 64 62 60 57 55 54 52 50 48 46 44 42 41 40 38 36 33 31 31 30 29 28 27 25 25 25 24 25 27 28 28 26 25 25 23 22 22 23 26 28 30
96 95 94 94 94 93 92 90 90 89 88 86 85 83 80 79 77 75 73 71 69 67 65 63 61 59 57 56 53 51 49 47 45 44 43 42 40 38 35 33 31 30 29 27 25 24 24 24 23 24 28 30 29 27 26 25 24 22 22 24 26 27 30
99 97 96 95 94 93 92 91 90 90 89 87 86 85 83 82 80 78 75 72 70 68 66 65 63 61 60 58 56 54 52 49 47 46 45 43 41 39 36 35 33 30 28 26 25 23 22 23 24 25 29 30 29 27 25 24 23 23 23 24 25 25 28
101 100 98 97 95 94 93 92 91 90 89 88 87 86 86 85 83 80 78 75 72 70 69 67 64 63 62 60 58 56 54 52 50 49 47 45 43 41 38 37 35 32 29 27 25 23 23 24 26 28 30 30 29 26 23 22 23 23 23 23 24 24 25
102 102 100 98 97 95 94 92 91 90 90 89 88 87 86 85 84 82 80 78 75 73 72 70 68 66 65 63 62 60 57 55 53 52 50 48 45 43 40 38 37 34 31 29 27 25 24 25 28 30 33 32 28 24 22 21 22 22 23 24 23 23 24
103 103 102 100 99 97 95 94 92 91 90 90 89 88 87 86 85 84 83 81 79 77 74 73 72 70 68 66 65 63 61 59 56 55 53 50 48 46 43 41 39 36 34 32 29 27 26 26 28 32 34 33 29 24 22 23 23 22 24 25 24 24 24
103 103 103 102 101 98 97 95 94 92 91 90 89 89 88 88 87 86 85 83 81 79 77 75 74 73 71 69 68 66 64 62 61 58 56 53 51 49 47 44 41 39 37 34 32 29 27 27 29 33 36 35 33 30 30 30 28 26 26 26 25 25 25
102 103 103 103 102 100 98 97 95 94 93 91 90 90 90 89 89 87 86 85 83 82 80 78 77 76 74 72 70 69 67 66 64 62 60 57 54 52 50 47 45 42 40 37 34 32 30 28 29 33 37 38 38 37 36 35 34 32 29 28 27 26 26
102 102 102 102 102 101 100 99 97 96 94 93 92 91 91 90 89 88 87 86 85 85 83 81 80 79 77 75 73 72 71 69 67 66 64 61 58 55 53 51 48 45 43 41 38 35 33 31 30 34 38 41 41 40 37 35 35 34 30 28 28 28 27
101 102 102 103 103 103 102 101 100 98 96 95 93 92 92 91 90 89 88 87 87 87 86 85 83 82 80 79 78 76 74 73 71 69 68 65 62 59 56 54 52 49 47 44 42 39 37 34 32 34 38 42 43 42 38 36 36 35 31 29 30 30 29
100 100 101 102 102 103 103 103 102 100 99 97 95 94 93 92 91 90 89 89 88 88 88 87 86 84 83 82 81 80 78 76 74 72 71 68 66 63 60 58 55 53 50 48 46 43 40 38 36 35 38 42 44 44 41 38 37 36 34 33 33 34 32
98 99 100 100 101 102 103 103 103 102 101 99 97 96 95 93 92 91 90 90 90 90 89 88 88 87 86 85 84 83 81 79 77 75 73 71 69 67 64 61 59 56 54 51 49 47 44 41 39 38 39 41 44 46 44 41 39 37 36 36 36 36 35
97 98 99 100 100 101 102 103 103 103 102 101 99 98 97 95 94 92 91 91 91 91 90 90 89 88 88 87 86 85 83 82 80 78 76 74 72 70 67 65 63 60 57 55 52 50 47 45 43 41 41 41 44 46 46 44 41 39 38 38 39 38 37
97 98 99 100 100 101 101 102 103 103 103 102 101 100 99 97 96 94 93 92 92 92 92 91 90 90 89 88 88 87 86 84 82 80 79 76 75 73 70 68 66 64 61 58 56 54 51 48 46 44 43 43 44 46 47 47 45 41 39 39 40 39 38
97 99 101 102 102 103 103 103 103 103 104 103 103 102 101 100 99 97 95 94 93 93 93 92 91 91 90 89 89 88 88 87 85 83 81 79 77 75 73 71 69 67 64 62 60 57 55 52 50 48 47 46 45 45 47 48 47 44 42 41 41 40 39
97 100 101 103 104 105 105 105 104 105 105 105 105 104 104 103 102 100 98 97 95 95 94 93 92 92 91 91 90 90 89 88 87 86 84 82 80 78 76 74 72 70 68 66 63 61 59 56 53 51 50 49 47 46 47 48 49 47 45 44 43 41 39
97 99 101 103 105 105 106 106 106 106 107 107 107 107 106 106 105 103 102 100 98 97 96 95 94 93 93 92 92 91 90 90 89 88 86 85 83 81 79 78 76 73 71 69 67 65 63 60 57 55 53 51 50 48 47 48 50 49 47 46 45 43 41
96 98 100 102 104 105 106 107 107 107 107 108 108 108 108 108 108 107 105 104 102 100 99 97 96 95 94 94 93 93 92 91 90 89 88 87 85 84 82 81 79 77 75 72 71 69 66 64 62 59 56 54 53 51 49 49 50 51 50 48 47 45 43
94 97 99 101 103 104 106 107 108 108 109 109 109 109 110 110 110 109 108 107 106 104 103 101 99 98 97 96 95 94 94 93 92 91 90 89 88 86 85 83 82 80 78 76 74 72 70 68 66 63 60 57 56 54 52 51 51 51 51 51 49 47 45
91 94 97 100 102 103 105 107 108 109 110 110 110 110 110 111 111 111 111 110 109 108 107 105 104 102 100 98 97 96 95 95 94 93 92 91 89 88 87 86 84 83 81 79 77 75 73 71 69 67 64 61 59 57 55 54 53 52 53 53 51 49 48
88 91 94 98 100 102 104 106 108 109 111 111 112 112 111 111 112 112 113 113 113 112 111 109 108 106 104 101 99 98 97 96 96 95 94 93 92 90 89 88 87 85 83 81 80 78 76 74 72 71 69 66 63 60 58 57 55 54 54 54 53 52 51
85 88 91 94 98 100 103 105 107 109 110 112 113 114 113 113 113 114 114 115 115 115 114 113 111 110 108 105 103 101 100 98 97 97 96 95 94 93 91 90 89 88 86 84 82 81 79 77 76 74 72 70 67 64 61 59 58 56 55 56 56 55 53
83 85 88 91 94 98 101 103 105 107 110 112 113 114 114 115 116 116 116 116 116 117 116 116 114 113 111 109 107 105 103 101 100 99 98 97 96 94 93 92 91 90 89 87 85 83 82 80 79 77 75 74 71 68 65 62 61 60 58 58 57 57 55
82 84 86 88 91 94 97 100 102 105 108 110 112 113 115 116 117 118 118 118 118 118 118 118 117 116 115 113 111 109 107 105 103 101 100 99 97 96 95 94 93 92 91 90 88 86 84 83 81 80 78 77 75 73 70 66 64 63 61 60 59 59 58
81 83 85 87 89 91 93 95 98 101 104 106 109 112 115 116 118 119 119 120 120 120 119 119 119 119 118 117 115 113 111 109 107 105 103 101 100 98 97 96 95 94 94 92 91 89 87 85 84 82 80 79 77 76 74 71 68 66 65 63 62 62 60
81 83 84 86 88 89 91 92 95 97 99 102 105 108 111 113 116 119 120 121 121 121 121 121 120 120 120 119 118 117 115 113 111 109 107 105 103 101 99 97 96 95 95 95 93 92 90 88 86 85 83 81 80 78 77 75 73 70 68 66 65 64 63
79 81 83 85 87 89 89 91 92 94 96 98 101 103 106 109 113 116 118 120 121 122 123 123 122 122 121 121 121 120 119 117 115 113 111 109 107 105 102 100 98 96 96 96 95 94 93 91 89 88 86 84 82 81 80 78 76 74 71 69 67 66 66
76 78 81 83 85 88 89 90 92 93 94 96 98 99 102 104 107 110 114 117 119 121 122 124 124 124 123 122 122 122 121 120 119 117 115 113 111 109 107 104 101 99 97 97 96 96 95 93 92 90 89 87 85 83 82 80 79 78 75 73 71 69 68
73 76 78 80 82 85 87 89 91 92 93 95 96 98 99 101 103 105 108 111 115 118 120 122 124 125 125 125 124 123 123 122 122 120 119 117 115 113 111 108 106 102 100 98 98 97 96 95 94 93 91 90 89 87 85 83 81 80 78 76 74 72 71
70 72 75 77 80 82 85 87 88 90 92 94 95 97 98 99 100 102 104 106 109 112 116 119 122 124 125 126 125 125 124 123 123 123 122 120 119 117 115 112 110 107 103 101 100 99 98 97 96 95 94 93 92 90 88 86 84 82 81 80 78 76 74
66 69 72 74 76 79 82 84 85 87 89 91 93 95 96 97 98 100 101 103 105 107 110 114 117 120 123 125 126 126 126 125 124 124 123 123 121 120 118 116 114 111 108 105 103 102 100 99 98 97 96 96 95 94 91 89 87 85 83 82 81 79 77
63 67 70 71 72 76 79 81 82 84 86 87 89 91 93 95 96 98 99 100 102 104 106 109 111 114 117 120 122 124 126 126 125 125 125 124 123 122 121 119 117 115 112 109 107 105 103 102 100 98 98 98 98 97 95 93 90 89 87 85 83 82 80
61 65 66 66 69 73 76 77 78 80 82 83 85 86 88 90 92 94 96 97 99 101 103 105 106 108 110 113 116 119 122 124 126 126 126 125 125 124 124 122 121 118 116 114 111 109 107 105 103 100 99 100 100 99 98 96 94 92 90 88 86 84 83
60 63 62 61 64 69 72 72 74 76 77 79 81 82 84 85 87 90 92 94 96 97 100 102 103 104 105 107 109 112 115 119 122 125 126 126 126 125 125 125 123 121 119 117 115 113 111 109 107 104 101 101 101 101 100 99 97 95 94 92 90 87 86
58 60 58 57 61 66 68 69 70 72 73 75 76 78 79 81 83 85 87 89 91 93 95 97 100 101 102 103 104 105 108 111 115 119 123 125 126 126 126 126 126 124 123 121 118 116 115 113 111 107 104 103 103 103 102 101 100 98 97 96 94 91 89
54 56 55 55 58 63 65 66 66 67 69 71 73 75 76 77 78 80 82 84 86 87 89 91 94 96 98 99 100 101 103 105 108 112 116 121 124 126 126 127 127 126 125 123 121 120 118 117 115 112 108 106 105 105 104 103 102 101 99 98 97 95 93

ECMWFFLT2_250_spd_072.txt.gz
Wind_Speed
93 92 92 91 92 92 91 88 86 84 82 80 78 76 74 74 73 72 70 66 64 64 63 62 61 59 58 57 56 56 55 53 52 50 49 49 47 46 44 42 40 36 32 30 29 29 28 28 28 28 27 25 24 26 27 27 26 24 24 23 23 24 24
95 94 94 93 94 92 91 90 89 87 84 82 80 78 77 77 76 75 72 69 68 67 65 63 61 60 59 58 57 56 55 54 53 51 51 50 48 46 44 42 39 37 35 32 30 28 28 28 29 29 28 26 25 27 29 28 27 25 24 24 24 23 24
97 97 96 96 95 93 92 92 90 89 88 86 84 82 80 78 77 76 73 71 71 70 68 66 64 62 60 59 58 57 56 56 54 53 52 51 49 46 44 42 39 37 35 33 30 29 30 30 29 29 29 28 27 29 30 30 28 26 25 25 24 23 24
99 100 99 97 95 94 94 93 91 91 91 89 87 85 82 81 80 77 74 73 72 70 68 67 66 64 63 61 60 58 58 57 56 54 53 52 49 46 44 42 40 38 36 33 32 31 32 31 29 29 30 29 29 29 30 30 28 27 26 25 25 24 23
101 101 100 98 96 96 95 93 92 93 92 90 89 87 85 85 83 79 77 76 73 69 68 67 66 64 63 63 61 60 60 59 57 56 54 52 49 47 45 43 41 39 36 34 33 32 32 31 30 30 29 29 29 29 30 30 29 28 27 26 25 24 24
100 101 100 99 98 98 96 95 93 92 92 91 90 89 88 88 85 81 80 78 73 71 70 68 66 65 64 63 62 61 61 59 58 57 55 53 50 48 46 44 42 40 37 35 34 33 33 32 31 30 30 29 30 30 32 34 34 32 30 28 27 26 25
99 100 101 100 100 100 99 97 95 94 93 92 92 91 91 90 88 84 83 80 76 74 73 71 70 68 66 65 63 62 62 60 59 58 56 55 52 49 47 45 43 40 38 36 35 34 34 33 33 32 30 31 33 34 35 36 35 34 32 31 30 29 28
99 100 101 101 101 101 101 99 97 96 95 93 93 93 92 92 90 88 87 84 80 78 76 75 74 72 70 69 66 65 64 63 61 60 58 56 54 51 49 47 44 42 39 37 36 35 35 35 35 33 31 31 35 36 36 35 34 32 30 30 29 28 27
99 100 101 102 102 102 102 101 99 98 96 94 94 93 93 94 93 91 90 87 83 81 80 78 77 75 73 72 69 68 67 66 64 62 61 59 56 54 51 49 46 43 41 39 38 37 36 36 36 34 32 32 36 38 38 37 34 31 29 28 28 27 27
100 100 101 101 101 101 102 101 101 99 97 96 95 94 94 94 94 94 94 90 86 85 83 82 80 78 76 74 72 70 69 68 66 65 63 61 59 57 54 51 49 46 44 42 40 39 38 37 36 35 33 33 37 41 41 39 37 34 32 31 29 28 28
100 100 100 99 99 100 101 102 102 101 99 98 97 96 95 95 95 95 95 91 89 89 88 86 84 82 79 77 75 73 71 70 69 67 66 64 62 60 57 55 52 49 47 45 43 42 41 39 38 36 35 34 37 42 44 42 40 38 36 34 32 30 30
99 99 99 98 99 100 100 101 102 103 102 100 99 98 96 95 95 96 94 93 92 92 90 88 87 85 83 81 78 76 75 73 71 70 68 66 64 62 60 58 55 53 50 48 46 45 43 42 40 38 37 36 37 41 44 44 43 41 39 37 34 32 31
99 99 99 99 99 99 99 100 101 103 103 102 101 100 97 96 96 95 94 94 94 93 92 91 89 88 86 84 82 80 78 77 75 73 71 69 67 65 63 60 58 56 53 51 49 47 46 44 43 41 39 38 37 40 44 46 46 44 41 38 36 34 34
98 99 100 100 100 100 99 99 100 102 103 104 103 102 100 98 97 96 95 96 95 94 94 93 92 91 89 87 85 83 82 80 78 76 74 72 70 68 66 63 61 59 57 54 52 50 48 47 46 44 42 41 39 40 43 48 49 47 44 41 38 37 37
97 98 99 100 100 100 100 99 99 101 103 104 104 103 102 101 99 97 97 97 96 95 95 95 94 93 92 91 89 87 85 83 82 80 77 75 73 72 70 67 65 62 60 58 56 54 51 49 48 47 45 44 42 40 42 48 51 50 46 43 40 39 38
96 97 98 100 100 101 101 100 99 100 102 104 105 104 104 103 101 100 99 98 97 96 96 96 95 95 94 93 92 90 89 87 85 83 81 79 77 75 74 72 69 66 63 61 59 57 55 53 51 50 48 47 45 43 42 46 52 53 49 46 42 40 38
94 96 98 99 100 101 101 100 99 99 100 102 104 105 105 104 103 102 101 99 97 97 97 97 96 96 95 95 94 93 92 90 89 87 85 83 81 79 78 75 72 70 67 64 63 61 59 57 55 53 51 49 48 46 44 44 49 54 53 49 45 42 39
91 94 97 99 101 102 101 100 100 100 100 101 103 105 105 105 105 104 102 100 99 99 98 97 97 96 96 95 95 95 94 93 91 90 88 86 84 82 81 79 76 74 70 68 66 64 63 61 59 57 55 53 51 49 47 45 47 52 55 53 48 45 42
88 91 94 97 100 101 101 100 101 101 101 102 103 105 106 106 106 105 104 103 102 100 99 98 97 97 97 96 96 96 95 95 93 92 90 89 87 85 83 82 80 77 74 71 69 67 66 65 63 61 59 57 54 52 51 49 47 49 54 56 53 48 46
86 89 92 95 97 98 99 100 102 102 103 103 104 106 107 108 107 107 106 105 104 103 101 100 99 98 98 97 97 97 96 96 95 94 93 91 89 88 86 84 83 80 78 75 73 71 70 68 67 65 63 61 58 56 54 53 51 49 51 55 55 53 51
84 87 90 93 95 96 98 100 102 102 103 104 105 107 108 109 109 109 108 108 107 106 105 103 101 100 99 99 98 97 97 97 96 96 95 93 92 90 89 87 85 83 81 78 76 74 73 72 70 68 67 65 63 60 58 56 55 52 51 52 54 55 54
82 85 88 90 92 94 96 98 100 101 102 104 105 107 108 109 110 110 110 110 110 109 108 106 105 103 102 101 100 99 98 97 97 97 96 95 94 93 91 90 88 86 84 82 79 78 76 75 73 71 70 69 67 65 63 60 58 56 54 53 53 54 56
81 83 86 88 91 93 95 97 99 101 102 103 105 106 107 109 110 110 111 111 111 111 111 110 109 107 106 104 102 99 99 99 99 98 98 97 96 95 94 92 91 89 87 85 82 81 79 77 76 75 73 72 71 69 67 65 62 60 58 56 54 53 54
79 82 85 87 89 91 93 96 97 99 102 104 106 106 107 108 109 110 111 111 111 111 112 112 112 111 110 108 103 101 102 102 100 100 100 99 98 97 96 94 93 91 89 87 85 83 81 80 79 77 76 75 74 72 71 69 66 63 61 59 57 55 55
78 80 83 86 88 90 92 94 96 99 102 104 105 106 106 107 109 110 111 111 111 112 112 112 113 112 112 110 107 105 106 105 103 102 101 100 100 99 98 96 95 93 92 90 88 86 84 82 81 80 78 77 76 75 74 72 70 68 65 63 61 59 58
77 79 82 85 86 88 91 93 96 99 101 102 104 106 107 108 110 111 112 112 113 113 113 113 113 113 113 112 110 109 109 108 106 105 104 103 102 101 100 99 97 96 94 92 91 89 87 85 83 82 81 80 78 77 76 75 73 71 69 66 65 63 61
77 79 81 83 85 87 89 92 95 97 99 101 104 105 107 108 110 112 113 113 114 114 114 114 114 114 114 114 113 112 112 111 109 108 107 105 104 103 102 101 100 98 97 95 93 91 90 88 86 84 83 82 81 79 78 77 76 74 72 70 68 67 65
77 79 80 82 84 86 88 91 93 96 98 100 102 104 106 108 110 112 113 114 115 115 115 115 115 115 115 115 115 115 114 114 113 112 110 108 107 106 105 104 102 100 99 98 96 95 93 91 89 87 85 84 83 82 81 79 78 77 75 73 71 70 68
75 78 80 82 83 85 87 89 92 94 97 99 101 103 105 107 109 111 113 114 115 116 116 117 117 117 117 117 116 116 116 116 116 115 114 112 111 109 108 106 105 103 102 100 99 98 96 94 92 90 88 86 85 84 83 82 80 80 78 76 75 73 71
73 76 79 81 83 85 86 88 91 93 95 98 100 102 104 106 108 110 112 114 115 116 117 118 118 118 118 118 118 118 118 117 117 117 117 116 114 113 111 110 108 107 105 103 102 101 99 97 95 93 91 89 88 86 85 84 83 82 81 79 78 76 74
70 73 76 79 81 84 86 88 89 92 94 96 98 100 102 104 107 109 111 113 115 116 117 118 119 120 120 120 120 119 119 119 119 119 118 118 118 116 115 114 112 110 109 107 105 104 103 101 99 96 94 92 91 89 88 87 85 84 83 82 81 79 77
65 69 72 75 78 81 84 86 89 91 92 94 97 99 101 103 105 107 110 112 114 116 117 119 120 121 121 121 121 121 121 120 120 120 120 120 120 119 118 117 116 114 112 111 109 108 106 104 102 100 97 95 94 92 91 89 88 87 86 85 84 83 81
60 64 68 71 75 78 81 84 87 89 91 93 95 97 99 101 103 105 108 110 112 114 117 118 120 121 122 122 122 122 122 122 122 122 121 121 121 121 120 120 119 118 116 115 113 111 110 108 106 103 101 99 97 95 94 92 91 89 88 88 87 86 84
58 61 64 67 70 73 77 80 83 85 88 91 94 96 97 99 101 103 105 107 110 112 114 116 118 120 121 123 123 123 124 124 124 123 123 123 122 122 122 121 121 121 120 119 117 115 114 112 110 107 104 102 101 99 97 95 94 92 91 90 89 89 87
56 59 61 63 65 69 73 76 78 81 84 88 91 93 95 97 99 100 102 104 107 109 112 114 116 118 120 121 123 123 124 125 125 125 125 125 124 124 123 123 122 122 122 121 120 119 118 116 114 111 108 106 104 102 100 98 96 95 94 93 92 91 90
53 58 60 60 62 65 69 72 74 77 80 82 85 88 91 94 96 98 101 103 104 106 108 110 112 115 117 119 120 122 123 124 125 126 126 126 126 125 125 124 124 123 123 123 122 122 121 120 118 116 113 110 108 106 104 102 100 98 97 96 95 94 93
51 56 58 58 59 63 66 68 71 72 74 76 79 82 86 89 92 95 98 100 102 104 105 107 109 111 113 115 117 119 121 122 124 125 126 126 126 126 126 125 125 124 124 123 123 123 123 123 122 120 117 115 112 110 108 106 104 102 100 99 98 97 96

ECMWFFLT2_250_spd_075.txt.gz
Wind_Speed
94 93 93 91 90 90 90 88 85 83 82 82 80 79 77 77 80 81 77 72 70 71 71 71 72 70 68 67 66 64 62 60 59 58 57 55 52 49 48 46 43 40 35 27 23 23 23 23 23 22 22 22 21 21 21 21 21 23 22 21 21 22 20
96 95 93 91 92 93 93 91 88 87 87 86 83 81 78 78 79 80 76 72 72 72 72 72 72 70 68 67 66 65 64 62 61 59 58 57 55 53 50 48 44 41 35 27 23 27 28 25 24 23 22 20 20 21 22 21 24 25 24 23 23 23 22
96 96 95 93 94 94 93 93 92 91 90 87 84 80 78 77 77 77 73 71 73 74 74 74 72 69 66 66 66 65 64 63 62 60 59 58 57 56 53 49 46 42 40 37 36 37 34 28 24 22 21 21 21 21 19 19 21 23 24 25 26 25 25
97 97 96 94 95 94 94 95 94 93 91 88 85 83 80 76 76 76 73 72 76 76 75 75 72 68 66 66 66 65 64 64 62 61 60 58 58 57 54 50 47 45 43 43 42 40 37 33 28 25 23 22 21 18 17 18 20 23 26 28 28 28 28
97 98 98 98 98 97 95 94 94 94 93 90 87 87 86 82 80 78 75 77 79 77 75 74 70 68 68 68 67 66 66 64 63 62 60 59 59 57 55 52 49 47 45 44 42 40 37 34 31 27 23 21 19 17 18 22 25 28 32 32 30 30 30
100 101 100 98 98 97 94 92 93 94 94 93 91 90 88 85 83 82 82 82 81 79 76 74 70 70 71 70 68 67 66 65 64 63 62 61 60 59 56 53 50 49 48 46 44 41 37 33 30 27 25 22 18 17 21 26 29 32 34 33 31 31 31
104 102 99 97 97 97 95 93 94 94 93 94 94 93 92 89 86 85 85 84 83 81 78 75 73 73 72 70 69 68 67 66 66 65 63 62 62 60 57 54 52 50 49 47 45 43 40 35 31 27 27 27 23 21 25 28 31 35 36 34 33 33 33
103 99 98 100 100 99 98 98 99 97 95 95 95 95 95 93 90 88 86 84 82 80 79 76 76 76 74 72 71 69 68 67 67 66 65 63 63 61 59 56 53 51 50 48 46 44 42 38 34 30 29 31 30 28 28 26 27 31 36 37 35 34 34
100 98 99 101 100 100 102 102 100 97 94 94 95 94 94 93 91 90 90 88 85 82 80 78 78 78 77 75 72 70 69 69 68 67 66 65 63 62 59 57 55 53 51 49 47 45 43 40 38 35 33 32 29 28 28 28 27 29 36 39 37 35 35
99 99 100 100 101 102 103 101 98 95 94 94 94 95 95 96 95 94 94 91 87 86 85 82 81 80 78 76 75 73 71 70 69 68 68 66 65 63 61 58 56 54 52 50 48 46 45 43 42 42 44 42 37 34 33 32 34 37 40 41 38 36 36
101 102 102 103 103 103 102 100 98 97 97 95 95 96 96 97 99 99 98 93 88 87 86 84 83 82 80 78 77 75 73 72 71 70 69 68 67 65 62 60 58 56 54 52 50 48 46 45 45 47 50 50 49 47 46 44 45 45 43 42 41 39 37
101 102 102 103 103 103 102 100 100 99 98 97 98 98 97 97 98 98 99 95 92 90 89 87 85 83 82 80 78 77 75 73 72 71 70 69 68 66 64 62 59 57 56 54 52 50 48 47 47 47 49 50 51 52 53 54 54 52 48 45 42 40 38
100 101 101 101 102 102 101 101 101 101 100 100 101 99 97 96 96 97 97 97 96 95 94 92 89 87 85 83 81 79 77 76 74 72 71 70 69 67 65 63 61 59 58 56 54 52 50 48 48 48 48 49 50 51 52 54 55 55 54 52 47 43 39
99 99 100 100 101 101 101 101 102 102 102 103 102 99 98 97 97 98 98 99 100 99 97 95 93 91 89 87 85 82 80 79 77 74 73 72 71 69 67 65 63 61 59 57 55 53 52 50 49 48 48 48 49 50 51 51 52 53 54 53 52 49 44
97 99 99 99 99 100 101 101 102 103 103 103 102 101 99 99 100 101 100 100 101 99 98 97 96 95 93 91 89 86 83 81 79 77 76 74 73 72 70 68 66 63 61 59 57 55 53 51 50 49 49 48 49 49 50 50 50 50 50 50 52 52 49
96 97 98 99 100 101 101 102 102 103 104 104 104 102 101 101 102 103 101 101 100 98 97 98 99 99 97 94 92 90 87 85 82 80 78 77 76 74 72 71 69 67 64 62 59 57 55 54 52 50 49 49 49 49 50 49 49 48 48 48 50 53 50
96 96 96 98 99 101 102 103 104 104 105 105 104 103 102 102 103 104 103 103 102 99 97 99 101 101 99 97 95 94 92 89 87 84 82 80 79 77 75 74 72 70 68 66 63 61 59 57 55 53 52 51 50 50 50 50 49 48 47 46 50 53 51
98 96 96 97 98 101 103 105 104 104 104 104 103 103 103 103 104 105 105 105 103 100 99 102 102 101 100 99 98 98 96 94 91 89 86 84 83 81 79 78 76 74 72 70 68 65 63 61 58 57 55 53 52 52 51 51 50 49 47 46 48 52 52
100 98 98 98 98 100 102 102 102 103 105 105 105 105 105 104 105 106 106 106 104 102 103 104 102 100 100 101 101 101 100 98 96 93 91 89 87 85 83 81 80 78 76 74 72 70 67 65 62 60 59 57 55 54 53 52 51 50 48 46 47 50 53
103 101 102 102 100 100 99 98 99 102 105 106 106 106 107 107 107 107 107 107 106 105 106 105 102 100 101 102 103 103 102 101 99 97 95 93 91 89 87 85 83 82 80 78 76 74 71 68 66 64 62 60 58 56 55 54 53 51 49 48 46 47 51
103 104 106 105 102 101 99 98 99 101 103 105 107 108 109 109 108 108 107 106 106 107 107 106 104 103 103 104 104 103 103 102 101 100 98 96 95 93 91 89 87 85 84 82 80 78 75 73 70 68 66 64 62 60 58 56 55 53 51 49 46 45 48
99 103 106 106 105 103 102 101 101 102 103 104 106 108 109 110 110 109 108 107 108 108 108 107 107 106 106 106 105 103 103 102 101 101 100 99 98 96 94 93 90 88 87 85 83 81 79 76 74 71 69 67 65 63 61 59 57 55 53 51 50 48 48
91 96 101 103 103 104 103 103 103 104 104 105 106 108 109 111 111 111 110 109 109 109 109 108 108 108 109 109 107 103 102 102 102 102 101 101 100 99 97 95 93 92 90 88 86 84 82 80 77 74 72 70 68 67 65 62 60 59 57 54 53 52 52
85 89 93 97 99 100 101 103 104 105 106 106 107 108 109 110 111 111 111 111 111 111 110 109 110 111 113 112 108 103 103 103 103 103 103 102 102 101 99 98 97 95 93 91 89 87 85 83 81 78 75 73 71 70 68 66 64 62 60 58 57 56 55
80 83 87 91 93 95 97 99 102 104 106 106 107 109 110 109 109 111 112 112 111 111 110 110 112 113 114 112 108 106 106 107 106 105 105 104 103 103 101 100 99 98 96 94 92 90 88 86 84 81 79 77 74 73 71 70 68 66 64 62 61 59 59
77 80 83 87 90 91 92 95 98 101 104 106 107 108 108 107 107 111 113 112 112 112 112 112 113 113 114 113 111 110 110 110 109 108 107 106 105 104 103 102 101 100 98 97 95 93 91 90 87 85 82 80 78 76 74 73 72 70 68 66 64 63 62
75 78 81 84 86 85 87 91 95 97 100 103 105 105 105 106 107 110 112 113 113 114 114 114 114 114 114 114 113 112 112 113 113 111 109 108 107 106 105 104 103 102 101 100 98 96 95 93 91 89 86 84 81 79 77 75 74 73 72 70 69 67 65
74 77 79 81 82 82 84 88 92 94 96 99 101 102 104 106 108 110 112 113 113 114 115 116 115 115 114 115 114 113 113 115 115 114 112 111 110 108 107 106 105 104 103 102 101 99 97 96 94 92 90 87 85 82 80 78 77 76 75 74 72 71 69
73 76 78 79 79 80 83 86 89 91 93 95 98 100 102 104 106 109 111 112 112 114 115 116 116 116 116 116 115 114 115 116 117 116 115 114 112 111 110 109 107 106 105 104 103 102 100 98 97 95 93 91 88 86 84 81 79 78 78 77 75 74 73
72 75 77 78 79 80 81 84 87 89 90 93 96 97 99 101 104 107 109 111 112 113 115 116 117 117 117 117 117 116 116 117 118 118 118 117 115 114 113 111 110 109 108 107 106 104 103 101 99 97 95 93 92 90 87 85 83 81 80 79 78 78 77
71 74 76 78 79 79 81 83 85 87 89 91 93 95 97 99 102 105 107 110 111 113 114 116 117 118 118 119 118 118 117 118 119 120 120 119 118 117 116 115 113 112 111 110 108 107 106 104 102 100 98 97 95 93 91 88 86 84 83 81 81 80 80
68 71 74 76 78 79 81 83 85 87 89 90 92 93 95 97 100 103 105 108 110 112 114 115 117 118 119 119 120 119 119 119 120 121 121 121 121 120 120 118 117 115 114 112 111 110 109 107 105 103 101 100 98 96 95 92 89 88 86 84 83 83 83
65 68 71 73 75 78 80 83 85 87 88 90 91 93 94 96 98 101 103 106 108 111 113 115 116 117 118 120 120 121 121 121 121 122 122 123 123 123 122 121 120 119 117 116 115 113 112 110 108 106 105 103 102 100 98 96 93 90 89 88 86 85 85
60 63 66 68 72 75 79 81 83 85 87 89 91 93 94 95 97 99 101 103 106 108 111 113 115 116 118 119 120 121 122 122 122 123 123 124 124 124 124 124 123 122 121 120 118 117 115 114 112 110 108 107 105 104 102 99 97 94 92 90 89 88 87
56 59 61 64 68 72 75 79 81 83 86 88 90 92 94 95 96 98 100 102 104 106 108 110 112 115 117 118 120 121 122 123 123 124 124 124 125 125 126 126 125 125 124 123 122 120 119 118 116 114 113 111 109 107 105 103 101 98 95 93 92 91 90
55 57 58 61 65 69 72 76 79 81 84 87 89 91 93 94 95 97 99 101 102 104 106 108 111 113 114 116 118 120 121 122 123 124 125 125 126 126 127 127 127 127 127 126 125 124 123 122 120 118 117 115 113 111 109 107 105 102 99 97 95 94 93
51 54 57 59 62 65 68 71 74 77 81 84 87 89 91 92 94 96 98 100 101 103 105 107 109 111 112 114 116 118 120 121 123 124 125 126 127 127 128 128 129 129 129 128 127 127 126 125 124 123 121 120 118 116 113 111 108 106 103 101 99 97 96

ECMWFFLT2_250_spd_078.txt.gz
Wind_Speed
95 92 94 94 91 89 89 89 87 86 86 86 87 87 86 85 84 84 84 79 73 72 72 71 70 68 66 66 65 62 60 59 58 57 54 49 47 45 42 40 39 38 39 38 35 31 28 23 20 19 15 13 18 20 18 18 17 18 20 19 17 16 16
97 96 96 94 93 94 93 90 89 89 90 90 89 89 88 88 87 86 85 80 77 77 76 74 73 71 69 66 65 63 62 60 59 58 56 52 49 45 38 36 39 40 40 38 35 31 27 23 22 20 17 18 23 23 18 18 19 19 22 22 18 17 17
100 99 98 96 95 97 94 91 90 90 91 90 89 89 88 87 87 87 84 80 80 81 78 76 75 74 72 69 66 65 64 64 62 60 58 55 52 45 36 36 42 45 43 40 36 33 29 24 21 21 22 23 25 25 23 23 23 22 22 22 20 19 18
102 101 99 96 95 95 93 90 89 88 88 88 87 87 87 85 86 87 84 81 82 82 80 79 78 75 72 70 70 69 66 66 65 64 62 59 56 51 46 46 48 49 46 42 39 37 32 27 21 21 28 29 26 28 30 27 24 24 23 22 21 19 17
101 100 99 96 96 96 93 91 91 90 89 88 87 86 86 86 87 88 87 83 80 81 81 81 80 76 73 73 74 73 70 69 68 67 65 63 61 58 57 57 54 53 51 46 45 42 37 33 28 27 33 34 29 29 31 29 27 27 26 24 20 18 17
100 99 99 99 98 97 95 94 94 94 93 92 90 88 87 87 87 90 91 86 79 78 80 82 81 78 76 77 77 74 73 72 70 69 67 66 65 62 61 61 59 59 56 52 50 46 42 40 36 33 36 35 32 31 30 31 31 29 27 24 21 19 19
103 103 102 100 98 96 96 94 93 94 94 94 93 91 90 88 87 90 92 89 85 82 82 83 82 80 79 80 79 76 74 73 72 71 70 68 67 65 64 64 62 61 58 55 52 48 46 45 40 37 39 38 35 33 31 32 32 31 30 27 23 21 20
102 103 100 97 97 97 96 94 93 94 95 96 96 96 95 92 91 92 93 91 90 88 86 84 81 79 81 83 81 78 76 75 74 73 72 71 69 67 66 66 64 63 60 57 54 51 50 49 45 42 42 40 35 32 33 32 31 31 31 29 26 22 18
98 98 96 95 98 98 97 97 97 96 97 99 100 99 97 95 94 96 95 92 90 89 88 85 81 80 81 83 81 79 77 76 76 75 73 71 70 69 68 67 66 64 62 59 57 54 53 54 53 50 48 43 37 33 33 32 30 31 31 28 25 20 15
97 97 97 98 100 99 99 100 100 99 100 101 100 98 95 92 94 97 96 93 91 88 88 87 84 82 82 82 81 79 78 77 76 75 74 72 71 70 69 68 67 65 64 61 58 56 55 54 54 53 51 48 43 38 35 33 33 33 32 29 24 18 13
95 97 100 101 100 101 100 100 100 101 101 100 100 98 95 93 96 98 96 93 90 89 88 87 86 84 83 83 82 80 78 78 77 76 75 73 72 71 70 69 68 66 64 62 60 57 56 53 51 50 49 48 45 41 38 37 37 36 34 30 25 19 14
95 97 101 100 99 99 100 100 103 104 101 100 99 96 95 96 99 100 97 92 90 90 89 88 86 86 85 84 83 81 79 78 77 76 75 74 73 73 72 70 69 67 65 64 61 59 57 54 51 50 50 49 47 43 41 41 40 40 39 34 28 25 18
99 99 101 101 100 100 101 103 107 106 102 102 99 95 96 98 100 100 98 95 92 90 90 88 86 87 88 87 85 83 80 79 79 78 76 76 75 74 73 72 71 69 67 65 63 61 60 57 55 53 52 51 49 45 43 44 44 44 44 39 34 31 25
100 99 99 100 102 102 102 104 105 102 99 100 99 98 99 101 100 99 98 96 94 93 92 90 88 88 88 88 87 85 83 82 81 79 78 77 76 75 74 73 71 70 69 67 65 63 62 60 58 57 55 54 52 48 45 46 47 46 45 41 38 36 30
96 95 96 98 100 102 103 103 102 99 98 99 100 101 103 102 99 97 96 97 96 94 94 93 91 90 89 89 89 88 87 85 83 81 79 78 77 76 75 74 73 71 70 68 67 65 63 62 60 59 57 56 54 51 48 48 49 49 46 43 43 42 38
95 96 96 98 101 102 103 103 101 98 99 101 102 103 104 102 100 98 98 99 98 96 96 95 93 93 93 92 91 90 89 88 85 83 81 80 79 78 76 75 74 73 72 70 68 66 64 63 62 60 58 56 55 53 51 51 52 52 51 47 45 44 43
95 96 98 100 101 101 102 103 101 99 101 103 104 105 104 103 103 101 100 100 99 98 97 97 95 94 95 94 93 92 90 89 87 86 84 82 81 79 78 77 76 74 73 72 70 68 66 64 63 61 59 57 55 54 53 52 54 56 57 55 53 51 48
95 97 99 100 98 98 101 103 102 101 103 105 106 106 104 103 102 102 101 99 99 99 99 98 97 97 97 96 96 94 93 92 90 88 86 84 83 82 80 79 77 76 75 73 72 70 68 67 65 63 61 59 57 55 54 54 54 56 58 59 59 58 56
95 97 98 97 97 98 102 103 102 101 102 104 105 104 103 102 102 103 102 100 99 100 101 100 99 99 99 99 98 97 95 94 93 91 89 88 86 84 82 81 79 78 77 76 74 72 71 69 67 65 63 61 59 58 56 55 55 55 56 57 58 58 57
96 96 95 96 98 100 100 100 99 100 102 103 104 103 102 103 104 105 104 103 102 103 103 103 102 101 101 101 101 99 97 96 95 93 92 91 89 87 85 84 82 81 80 78 76 75 73 72 70 68 66 64 62 60 58 57 56 56 55 56 57 57 56
98 97 95 95 98 99 98 98 99 101 102 104 105 105 105 105 106 107 106 106 106 105 105 106 105 104 102 102 101 100 99 99 97 96 94 93 91 90 88 86 85 84 82 81 79 77 76 74 72 70 68 66 64 63 61 59 57 57 56 56 56 57 57
101 99 97 97 97 97 97 98 100 102 103 104 105 106 106 106 107 108 108 108 109 109 109 109 109 106 104 104 104 103 102 101 99 98 97 95 93 92 91 89 88 87 86 84 82 80 79 77 76 74 71 69 67 65 63 62 60 58 58 57 56 56 56
104 102 100 99 99 98 97 96 99 101 103 104 105 107 107 107 107 109 110 110 111 112 113 112 110 108 107 107 107 105 103 101 100 99 98 97 97 96 94 93 92 91 89 87 85 84 82 81 79 77 75 73 70 69 67 64 63 61 60 59 57 57 57
106 105 104 103 102 101 98 97 98 100 102 104 106 107 108 108 108 109 111 112 113 115 115 114 110 109 110 110 108 106 103 102 100 100 100 100 100 99 98 96 96 95 92 90 89 87 86 84 83 80 79 77 75 73 70 68 66 64 63 61 59 58 58
106 108 107 106 105 103 101 100 100 100 101 103 105 108 110 109 108 109 111 112 114 116 116 114 111 110 111 111 109 106 104 104 103 104 103 103 103 102 101 100 99 97 95 94 93 91 90 88 86 84 82 81 79 77 74 72 70 68 66 65 63 61 60
102 106 109 109 107 105 103 102 102 103 103 103 104 106 108 107 107 109 111 113 114 115 115 114 113 112 112 112 112 109 107 107 107 108 107 106 105 104 103 102 102 100 98 98 97 95 94 92 90 88 86 85 83 81 78 75 73 71 70 68 66 64 62
93 99 105 108 107 106 106 106 105 105 106 105 105 105 106 106 107 109 112 113 114 114 113 113 114 114 113 113 114 113 111 111 111 111 110 109 107 106 105 104 103 103 102 101 100 98 97 95 93 92 90 88 87 85 82 80 77 75 73 72 70 68 66
84 90 96 101 103 104 107 108 108 107 107 107 107 106 106 107 107 109 112 114 114 113 113 114 116 116 115 116 117 116 114 114 113 113 112 111 110 109 108 107 106 105 105 104 103 101 100 98 97 95 94 92 91 89 86 84 82 80 77 75 73 71 70
79 83 88 92 95 99 103 105 107 109 110 110 109 109 109 109 110 111 112 113 112 112 114 116 118 118 118 118 118 117 116 115 115 115 115 114 113 112 111 110 109 108 107 106 105 104 102 101 100 99 98 96 94 93 91 89 86 84 81 79 77 75 73
74 78 83 86 88 92 96 99 102 105 109 111 111 111 111 111 112 112 112 112 112 113 114 115 117 119 119 119 119 119 118 117 117 116 117 117 116 115 114 113 112 111 110 109 108 107 105 104 103 102 101 100 98 96 95 93 90 88 85 83 81 78 77
70 74 78 81 83 86 89 92 95 99 103 107 110 112 112 113 114 114 114 114 114 115 115 115 117 118 120 120 120 121 121 120 119 118 118 118 118 118 117 116 116 115 114 112 111 110 109 107 106 104 104 103 101 100 98 96 94 92 90 87 85 83 80
67 71 74 77 80 82 85 87 90 93 96 100 104 107 110 111 113 115 116 116 116 117 117 117 118 119 120 121 121 122 122 122 122 121 120 120 120 121 120 120 119 118 117 116 115 114 112 110 109 107 106 106 104 103 101 99 97 95 94 91 89 87 85
63 68 71 73 76 79 81 83 86 89 92 94 97 101 104 106 108 112 114 116 117 117 118 118 119 119 120 121 122 123 123 123 123 123 123 123 123 122 122 122 121 121 120 119 118 117 116 115 113 111 109 108 108 106 104 102 100 98 97 95 93 91 89
61 65 67 70 73 76 78 80 82 85 88 90 92 95 98 100 102 106 110 113 114 116 117 118 119 120 121 121 122 123 123 124 124 124 125 125 125 124 124 124 124 123 123 122 121 120 119 118 117 115 113 112 111 109 108 106 104 102 100 98 96 95 93
58 61 63 66 70 73 75 77 79 82 84 86 89 91 94 96 98 101 104 107 109 111 114 116 117 119 120 121 122 123 123 124 124 125 126 126 126 126 126 126 126 126 125 125 124 123 122 122 121 119 118 116 114 113 111 109 107 105 103 101 100 98 96
55 58 60 63 66 69 72 74 77 79 82 84 86 88 90 93 95 97 99 102 104 107 109 111 113 116 117 119 120 121 123 123 124 125 126 127 127 128 128 128 128 128 128 127 126 126 125 125 124 123 121 120 118 116 115 113 111 109 107 105 103 101 100
54 56 58 60 62 65 68 71 73 76 78 81 83 85 87 90 92 94 95 97 100 102 104 106 108 110 112 114 116 118 119 121 123 125 126 127 128 129 129 130 130 130 130 129 129 128 128 127 126 125 125 123 122 120 118 116 114 113 111 109 107 105 103

ECMWFFLT2_250_spd_084.txt.gz
Wind_Speed
89 88 87 85 84 85 85 83 85 89 92 92 91 91 89 87 85 83 80 79 78 76 75 74 71 69 67 66 64 63 60 58 56 54 52 48 42 34 29 28 27 26 27 28 30 32 30 25 21 19 21 20 16 16 16 14 13 10 9 12 13 10 9
89 90 90 88 86 86 86 84 85 90 94 94 94 93 91 88 86 83 80 80 80 78 77 76 74 72 69 68 67 65 64 62 60 58 55 51 45 37 32 32 31 29 31 33 33 33 30 28 25 21 20 20 17 16 15 14 12 9 7 10 13 13 13
91 91 92 91 89 87 86 86 87 89 92 95 95 95 92 90 87 83 80 80 80 79 78 77 76 73 70 68 68 68 67 66 63 61 58 53 47 41 39 39 39 41 43 42 40 38 33 29 26 22 19 18 16 15 13 12 12 10 7 9 12 14 16
93 94 93 92 90 88 88 89 88 87 89 93 96 97 95 91 88 85 82 80 79 79 79 78 76 74 71 70 71 71 70 69 66 63 60 54 46 43 45 48 49 51 51 48 45 41 35 31 27 24 21 18 17 16 13 12 12 10 10 11 12 14 17
95 95 94 93 91 90 90 91 89 87 87 90 95 97 96 94 91 88 85 82 79 78 79 79 77 74 72 74 76 76 74 71 69 67 63 59 53 49 50 54 55 55 52 50 48 42 38 33 28 25 23 20 18 15 11 13 14 12 11 13 14 16 18
95 95 94 93 92 92 92 92 91 90 88 89 92 96 97 96 93 91 88 85 82 79 79 79 78 75 74 74 76 77 77 74 71 69 68 67 63 60 59 59 59 56 51 49 49 45 40 36 30 26 24 21 17 13 12 15 17 16 12 13 16 18 20
94 94 94 93 93 93 93 93 92 91 90 89 91 94 97 97 95 93 90 87 84 81 80 80 80 78 76 76 74 72 74 75 73 70 69 69 68 66 65 63 61 57 51 49 49 47 43 39 35 30 26 23 19 15 15 17 19 18 14 16 20 23 25
94 95 95 95 94 93 94 94 93 92 92 91 91 94 97 98 97 95 93 90 86 83 81 81 82 82 80 80 78 73 69 71 75 74 71 70 69 68 67 66 63 60 56 53 51 50 48 45 41 36 31 27 24 21 22 23 23 21 18 21 26 28 30
96 97 98 97 96 95 95 96 94 93 93 93 93 94 96 98 99 98 96 92 89 86 84 84 84 83 82 81 81 79 75 70 71 75 75 73 71 70 70 69 66 64 61 59 57 54 52 48 43 38 34 31 27 25 27 29 28 25 23 26 28 29 31
97 98 98 98 98 98 97 96 95 94 94 95 95 94 94 96 98 98 98 95 92 89 87 86 85 84 85 84 83 83 82 76 70 72 76 77 74 71 71 70 69 67 64 62 60 58 55 50 44 39 35 31 29 29 32 35 33 28 27 30 31 30 30
99 98 98 98 99 99 98 96 96 96 96 97 97 95 94 94 96 98 99 98 95 91 89 89 89 87 86 86 84 82 84 82 77 74 74 77 78 75 73 71 71 70 67 64 62 60 59 55 50 46 41 35 32 34 39 43 40 35 34 34 32 31 29
100 98 98 98 99 99 99 97 97 98 99 99 98 97 95 94 93 95 97 97 95 93 92 91 91 89 87 85 84 84 84 84 82 80 76 75 76 77 76 75 73 72 70 67 64 63 61 59 56 53 48 44 42 42 46 49 45 41 40 38 36 35 33
101 99 98 98 99 100 100 99 98 100 101 100 100 98 96 94 92 92 93 95 95 93 92 91 91 90 89 87 86 85 86 85 84 84 82 79 77 77 78 78 76 75 73 70 67 65 64 63 61 58 54 52 51 51 53 53 51 47 44 40 39 38 36
102 100 99 99 99 100 101 101 101 102 101 101 101 99 97 95 93 91 90 92 94 93 92 90 90 90 90 90 88 87 88 88 87 86 85 84 82 81 80 80 79 78 76 73 70 68 67 65 64 62 59 57 55 56 57 57 55 52 48 44 42 41 40
102 101 100 99 99 100 102 102 103 104 102 102 102 100 98 96 94 92 90 90 92 93 92 90 89 89 90 90 91 90 90 91 90 89 87 86 85 84 84 84 83 81 79 77 73 70 69 68 67 65 62 59 58 59 60 60 58 57 56 53 50 48 46
100 102 101 100 99 100 101 102 103 104 105 105 104 102 99 97 95 93 92 91 91 91 91 91 90 90 90 91 93 94 94 93 93 92 90 88 87 86 86 86 85 83 82 80 77 73 70 69 69 67 65 63 61 61 62 62 62 61 61 62 59 56 53
98 101 101 100 100 100 101 102 103 104 106 107 106 103 101 100 98 95 94 93 92 91 91 92 92 91 91 92 94 96 96 95 94 93 92 91 90 88 87 87 86 84 82 81 79 77 75 72 70 69 66 65 65 64 63 64 65 63 62 63 62 59 57
97 100 101 101 100 100 101 103 104 104 106 108 107 105 103 102 101 99 97 96 94 92 92 93 93 92 91 91 93 96 98 97 96 95 95 93 92 91 90 89 88 86 85 82 80 78 77 76 74 72 69 68 67 66 66 67 67 66 64 63 59 56 54
95 99 102 102 102 102 103 104 104 105 107 109 109 106 105 104 103 102 100 99 97 95 94 94 94 95 94 92 92 95 97 98 98 97 96 95 94 93 92 91 89 88 86 85 82 80 78 78 77 76 74 72 71 70 69 69 69 68 67 65 62 58 55
94 97 100 102 104 105 104 104 105 106 107 108 109 108 106 106 105 103 102 100 99 98 97 96 95 96 97 96 95 95 96 98 99 98 97 97 96 94 93 92 91 90 88 87 85 83 81 80 79 79 78 76 75 73 72 72 71 70 68 67 66 65 61
93 95 96 99 102 103 104 104 105 106 106 107 108 108 107 106 105 103 102 101 100 99 99 98 97 97 98 97 97 97 98 99 100 99 98 97 97 96 95 94 93 93 91 89 87 85 83 82 81 81 81 79 78 76 75 74 74 73 71 70 69 68 66
93 94 95 96 97 99 101 102 103 105 105 106 107 107 107 106 104 101 100 101 102 102 101 100 100 100 99 98 97 98 100 101 101 100 99 98 98 97 97 97 96 95 94 93 90 88 86 85 83 82 81 81 81 79 78 77 76 75 74 73 72 70 68
93 94 94 94 94 95 97 99 101 104 105 106 107 107 108 106 104 100 97 97 100 103 103 102 102 102 101 101 101 102 102 101 101 101 101 101 100 99 98 97 97 97 97 96 94 91 89 88 86 84 83 82 82 81 80 80 79 78 77 75 73 72 70
94 95 95 94 93 94 95 97 99 103 106 107 106 106 107 106 104 102 100 98 100 104 106 104 103 103 104 104 105 104 103 102 102 103 104 104 103 102 101 99 98 98 97 96 95 93 91 89 87 85 83 82 82 82 82 81 80 79 79 77 75 73 71
96 96 95 94 94 93 94 96 98 102 105 106 106 106 107 106 104 103 104 103 105 108 109 108 106 105 106 106 106 105 104 104 104 106 107 107 106 105 103 103 101 100 98 97 96 95 93 92 89 87 84 83 83 83 83 82 81 80 80 78 77 75 74
97 97 97 96 95 94 95 96 98 100 102 105 107 108 107 106 106 106 105 106 108 111 112 112 111 108 107 107 107 106 106 107 107 108 109 109 108 106 105 104 103 102 100 99 98 97 97 96 94 92 89 87 86 85 84 83 83 82 81 80 79 78 77
94 98 99 98 96 96 96 97 98 99 101 103 107 108 108 107 107 108 108 109 110 112 114 114 113 111 110 108 108 109 110 110 110 110 110 110 110 108 106 105 104 103 102 101 100 100 99 99 97 96 94 92 90 89 87 86 85 84 84 83 82 81 80
87 93 97 99 99 98 98 99 100 101 102 103 105 106 108 108 108 108 108 110 111 112 114 114 113 112 112 111 110 111 112 112 112 112 112 111 110 109 108 106 105 104 103 102 102 101 101 101 100 99 98 96 95 93 91 90 88 87 86 86 85 84 83
78 84 90 95 99 101 101 101 102 103 103 104 104 106 108 108 108 108 108 109 111 112 113 114 113 111 111 112 113 113 114 115 115 114 114 113 112 111 109 108 107 105 104 104 104 103 103 102 102 101 101 100 98 97 95 94 92 91 90 89 89 88 87
70 76 81 87 94 99 102 103 104 104 105 105 106 106 106 107 107 108 108 109 110 111 112 114 115 113 112 112 113 113 114 115 116 115 115 114 113 113 112 111 109 108 107 106 106 105 105 104 103 103 102 101 101 100 99 97 96 95 94 93 92 92 91
64 69 74 79 85 92 98 102 105 106 107 107 107 107 107 107 107 107 108 109 110 110 111 113 114 114 114 113 113 114 114 114 115 115 115 115 115 115 115 113 112 111 110 108 108 107 107 106 106 105 104 103 102 102 101 100 99 99 97 96 95 95 94
60 64 69 73 78 83 89 95 101 105 108 109 110 109 109 109 108 108 108 109 110 111 112 112 113 114 114 114 114 114 114 114 113 114 115 116 117 117 117 116 115 113 112 112 111 110 109 109 108 108 107 106 105 104 103 102 102 101 100 100 99 98 97
56 60 65 69 73 77 81 87 94 100 105 109 111 112 111 111 110 110 110 110 111 112 112 112 113 113 114 115 115 114 114 114 114 115 116 117 118 118 118 118 117 117 116 115 114 112 112 111 111 111 110 109 108 107 106 105 104 103 102 101 100 100 99
53 56 60 64 69 72 76 81 86 92 98 104 108 112 113 113 112 111 111 111 112 112 112 112 113 113 114 115 115 115 115 115 115 116 117 117 117 118 119 119 119 119 119 118 117 116 115 114 114 114 113 112 111 110 108 107 106 105 104 103 103 102 101
51 53 56 60 64 68 72 76 80 85 90 96 102 107 111 113 114 114 113 113 113 113 113 112 113 113 114 115 116 116 116 116 116 116 116 116 117 117 118 119 120 120 120 119 119 118 118 118 117 116 115 114 114 112 111 110 109 108 107 106 105 104 104
49 52 54 57 60 63 67 71 75 80 84 89 94 99 104 109 112 114 115 115 115 114 114 114 114 114 114 115 116 117 117 117 117 116 117 117 117 117 118 119 120 120 120 120 120 120 120 120 119 118 118 117 116 116 114 113 112 111 110 109 108 107 106
46 50 52 55 57 60 63 67 71 75 79 83 88 92 96 100 105 110 113 115 116 116 116 116 116 115 115 115 116 117 117 118 118 117 117 118 118 118 119 119 120 120 120 121 121 121 121 121 121 120 120 119 119 118 117 116 116 114 113 112 111 110 109

ECMWFFLT2_250_spd_087.txt.gz
Wind_Speed
85 87 87 88 89 88 85 82 80 79 82 87 91 91 89 87 83 78 77 80 82 80 77 73 69 65 62 60 59 59 57 54 50 45 40 35 32 32 34 35 34 33 32 33 32 29 25 22 22 23 21 19 16 14 14 14 14 12 8 4 1 3 4
86 88 89 90 91 90 87 84 82 81 82 86 89 91 91 88 84 78 74 78 82 82 79 76 73 69 66 62 60 59 58 56 52 48 43 40 40 41 39 35 35 35 34 34 31 27 24 24 24 24 23 22 21 17 13 13 13 11 8 6 6 5 4
88 88 90 91 91 90 88 87 84 82 82 83 86 90 91 89 87 82 75 75 79 82 81 78 76 73 71 68 64 62 60 57 55 52 48 47 48 48 43 38 37 38 38 36 32 28 26 25 25 24 23 23 22 18 14 13 14 11 8 7 7 8 8
89 88 89 90 91 90 89 88 86 84 83 83 85 88 90 91 90 87 82 77 76 79 80 79 78 77 75 73 70 67 64 60 58 55 53 53 54 52 48 45 43 42 40 36 34 32 29 26 25 24 23 22 21 17 14 16 16 13 12 12 11 11 11
90 88 88 89 91 91 91 90 88 87 86 85 84 85 88 92 92 90 87 82 78 77 79 80 80 80 79 76 74 70 66 63 61 59 57 57 59 57 52 50 49 46 42 38 34 32 30 28 26 25 23 22 21 18 16 18 18 16 16 16 16 16 14
93 90 89 89 91 93 93 92 91 90 88 87 85 85 86 90 93 92 88 86 82 80 79 80 81 82 81 79 77 73 70 66 63 62 61 60 62 61 57 53 52 49 45 41 37 33 31 30 29 29 28 26 24 21 19 19 20 19 19 19 19 19 17
94 92 90 90 92 94 94 93 93 92 91 88 86 85 85 88 92 93 90 88 87 83 81 80 80 82 83 82 80 76 73 70 67 66 65 64 64 64 61 56 54 51 46 43 40 37 34 33 32 33 33 31 27 23 21 21 22 22 23 24 23 21 20
95 94 93 92 93 94 95 94 94 93 91 89 87 85 85 85 88 91 91 89 88 86 84 81 80 81 82 83 82 79 76 73 71 69 68 67 66 66 64 60 56 53 50 46 43 40 38 37 38 39 37 34 31 26 22 22 24 26 27 26 25 24 22
97 97 96 95 94 94 95 95 94 93 91 89 87 86 85 85 85 87 89 89 88 88 87 84 82 81 81 81 81 81 79 76 73 72 70 70 69 68 67 64 60 57 54 51 47 43 39 37 40 44 42 38 34 27 22 24 28 29 28 27 26 26 25
98 99 98 97 96 95 94 94 93 93 91 89 88 87 86 85 84 83 85 87 88 88 88 87 84 82 82 81 81 82 82 79 76 75 74 73 72 71 70 68 64 60 57 54 50 45 40 37 41 45 45 42 38 31 27 30 33 31 30 29 30 30 29
98 99 99 98 97 95 93 92 92 92 91 89 88 88 87 86 85 83 82 85 86 86 86 87 86 84 83 83 82 83 84 82 80 78 77 76 75 74 73 71 68 63 58 52 47 44 41 39 43 47 45 43 41 37 36 37 36 34 32 30 31 32 31
98 100 100 99 97 95 93 92 92 91 91 90 89 89 88 87 85 84 83 83 85 85 85 86 86 86 85 84 84 84 84 84 83 81 80 79 78 77 76 75 72 69 64 57 53 51 47 43 46 49 47 45 43 40 40 38 37 37 35 32 33 32 30
97 99 100 99 98 96 94 92 91 91 91 91 91 90 90 89 87 85 84 83 84 86 87 86 85 86 86 85 85 84 84 85 84 83 83 82 82 80 78 77 75 73 71 67 64 64 60 56 53 52 50 49 48 44 40 36 35 36 36 35 35 33 31
96 98 99 99 98 96 95 93 92 92 92 92 92 92 91 91 89 87 86 84 84 85 86 87 86 86 86 86 86 85 84 84 85 86 86 85 85 84 82 80 78 75 74 74 73 73 73 70 65 59 56 55 53 50 44 39 37 36 35 36 36 35 34
94 97 99 99 99 98 97 95 94 94 93 93 93 93 93 92 91 90 89 87 85 84 85 87 87 86 85 85 86 87 86 86 86 87 88 88 87 87 86 84 81 78 76 75 76 76 76 75 71 67 65 63 60 57 52 48 44 41 39 36 34 35 36
93 95 98 100 101 101 99 97 96 95 95 95 95 95 95 94 93 93 91 89 88 86 85 86 87 88 87 86 87 89 89 88 87 87 87 88 89 88 87 86 84 81 78 77 76 77 77 76 73 70 70 69 66 63 61 56 51 49 46 42 38 37 37
93 94 97 99 100 100 100 99 98 98 98 97 97 96 96 96 95 94 94 92 90 88 86 85 86 88 89 89 89 90 91 90 88 87 87 87 88 89 88 87 85 84 82 79 76 76 77 78 76 73 71 70 69 69 67 64 60 57 53 50 48 46 42
94 94 95 97 99 100 100 101 100 100 100 99 99 98 97 97 97 96 95 95 93 91 88 87 87 88 89 91 91 91 91 90 90 89 89 88 88 89 89 89 88 87 87 85 81 78 77 77 78 76 74 72 72 72 70 68 67 64 60 58 57 56 52
93 93 94 96 98 100 102 102 102 101 101 101 101 99 98 98 98 97 96 96 95 94 92 90 90 89 90 91 92 92 91 91 91 92 91 91 90 90 90 90 90 90 90 90 89 85 81 78 77 77 77 77 76 75 74 71 70 69 68 67 66 64 63
91 93 93 95 98 100 102 102 103 103 102 103 103 102 100 99 98 97 97 96 96 96 95 94 93 93 92 92 93 93 93 93 93 93 93 93 93 92 92 91 92 92 92 92 92 91 89 85 81 79 78 78 78 78 77 75 73 72 72 72 71 69 68
89 91 93 95 98 100 101 102 104 104 104 105 105 104 103 101 98 98 98 97 97 97 97 96 96 95 95 94 94 94 95 95 95 95 96 96 96 95 95 94 94 94 94 93 93 92 92 91 88 85 82 80 78 78 77 77 76 76 76 75 74 73 72
88 90 93 95 97 100 101 103 105 106 107 107 107 107 106 103 101 99 99 99 99 98 98 98 98 97 96 95 95 95 96 97 98 98 98 98 99 99 98 98 98 97 96 95 94 93 92 92 92 91 89 86 84 82 80 79 78 78 78 77 77 77 75
86 88 91 93 96 98 100 102 104 107 109 110 110 109 107 105 103 101 101 101 100 100 100 99 98 98 96 95 96 97 98 99 99 99 100 100 101 102 102 101 101 100 99 98 96 94 94 93 93 92 92 91 89 88 86 84 82 81 80 80 79 79 78
85 87 89 92 94 95 97 99 102 105 109 110 111 110 109 108 106 104 103 99 91 91 98 102 100 99 98 98 98 98 99 99 99 99 100 101 103 104 104 104 104 102 101 100 99 97 96 95 94 94 93 92 91 90 89 87 85 84 83 82 81 80 80
85 86 88 90 92 93 95 98 100 103 106 108 110 111 110 110 108 106 105 99 87 81 89 98 101 101 100 100 101 101 100 100 101 101 102 102 104 105 105 106 105 105 103 102 101 100 99 97 96 95 95 94 93 91 90 89 87 86 85 84 83 82 82
85 87 88 89 91 92 94 97 100 102 104 105 108 111 111 110 110 109 108 105 99 93 92 94 98 100 102 102 104 105 105 104 104 104 105 104 104 105 106 107 106 106 105 104 103 102 101 100 99 98 97 95 94 93 92 91 90 89 87 86 86 85 84
87 88 89 90 91 92 93 96 99 101 102 104 107 109 110 111 111 110 109 108 106 104 101 98 98 100 103 106 107 108 108 108 107 107 107 106 106 106 107 107 108 108 107 106 105 104 103 102 101 100 99 98 96 95 94 93 93 92 91 90 89 88 86
90 90 91 91 92 93 94 95 98 99 101 103 105 107 109 111 111 111 111 110 108 106 105 103 100 99 102 106 110 110 110 109 110 110 110 108 107 108 108 108 109 109 109 109 108 106 106 105 104 103 101 100 99 98 97 96 95 95 94 93 92 91 90
88 92 94 94 94 94 95 96 98 99 100 102 104 106 108 110 111 112 112 112 111 109 107 105 103 101 101 104 109 112 112 111 111 112 111 110 110 111 111 110 110 109 109 109 109 108 107 106 105 105 104 103 102 100 100 99 99 98 97 97 96 95 94
79 87 93 96 97 97 97 97 98 99 100 101 103 105 107 108 109 111 112 112 111 110 108 107 106 104 103 104 107 111 114 115 114 113 113 113 114 115 114 112 111 110 109 108 108 108 108 107 107 106 105 105 104 103 102 102 101 101 100 99 98 97 97
69 76 84 92 97 99 100 100 100 100 100 101 102 104 105 107 108 109 111 112 111 110 111 111 109 106 105 106 108 111 115 117 118 116 115 116 117 118 116 114 112 111 110 109 108 108 108 108 108 107 107 106 106 105 104 103 103 103 102 102 101 100 99
60 67 74 81 88 95 99 102 103 103 102 102 103 103 104 106 108 109 110 110 110 111 113 114 113 110 109 111 114 116 118 119 120 119 118 118 118 118 117 115 114 113 112 111 111 110 110 109 109 108 108 107 107 106 106 105 105 104 104 104 103 102 102
55 60 66 72 78 84 91 97 101 103 104 104 104 104 104 106 107 108 109 109 110 111 112 114 114 113 114 116 120 122 122 122 121 121 120 119 118 117 117 116 115 115 115 114 114 113 113 112 111 110 108 108 107 106 106 106 106 105 105 105 104 104 103
50 55 60 65 70 75 81 87 92 97 102 105 106 106 106 106 107 108 109 109 110 110 111 113 114 114 116 119 122 124 124 122 121 122 121 120 119 118 117 117 116 116 116 116 117 117 116 115 114 112 111 110 108 107 106 106 106 106 106 106 106 106 105
48 52 56 60 65 69 74 78 83 88 93 98 103 106 107 107 107 108 109 110 111 111 112 113 113 115 117 120 122 124 125 124 122 121 121 121 121 119 119 119 118 118 117 116 117 118 118 117 116 115 114 113 111 110 109 108 108 107 107 107 107 107 107
46 50 53 57 60 64 68 73 77 81 86 90 95 100 104 107 108 109 110 110 111 112 113 114 114 115 117 120 122 124 126 126 125 123 122 123 123 122 121 120 120 120 120 119 117 117 118 118 118 117 116 115 114 113 112 112 111 111 110 109 109 109 108
43 47 51 54 57 60 64 68 71 76 80 84 88 92 97 101 105 108 110 111 112 112 114 115 115 116 117 119 121 123 125 126 126 125 124 124 124 125 124 123 123 123 123 123 122 120 119 119 119 119 118 118 117 116 115 115 114 114 113 113 112 111 111

ECMWFFLT2_250_spd_093.txt.gz
Wind_Speed
79 80 81 82 83 83 83 81 79 78 77 77 78 79 80 79 77 75 73 72 73 71 67 62 61 61 58 56 55 51 47 45 39 34 36 38 38 39 38 37 36 34 32 31 29 26 25 23 21 20 20 19 17 16 13 8 4 3 5 4 2 2 2
82 81 82 83 84 84 83 81 81 81 80 79 79 79 79 79 76 74 74 74 73 73 71 67 63 63 61 59 57 54 50 47 42 38 38 39 40 41 41 39 37 36 34 33 31 29 28 26 24 24 24 23 21 19 17 13 8 5 4 3 1 1 2
85 83 83 83 83 83 83 83 83 83 82 80 79 79 78 78 76 75 75 76 74 73 74 73 68 66 64 62 60 56 53 49 45 42 39 39 40 41 41 41 39 37 36 35 34 33 31 29 27 27 28 26 23 22 21 17 12 9 8 7 5 3 3
87 85 83 82 81 82 83 84 84 83 82 81 80 80 80 79 78 76 76 78 76 74 75 77 74 70 67 67 64 58 55 51 46 44 42 39 38 38 39 41 41 40 39 38 37 36 33 31 30 31 32 29 26 25 24 21 17 14 12 11 9 7 5
89 86 83 81 81 82 83 83 83 82 81 81 81 81 81 80 79 78 77 78 78 77 77 78 79 75 71 69 68 62 57 54 48 46 44 40 38 39 40 40 41 42 43 42 40 37 35 34 33 34 34 32 29 27 27 26 22 18 16 15 13 11 9
90 87 84 83 82 83 84 84 84 83 82 82 82 80 80 80 80 79 77 77 80 80 78 79 81 81 76 72 71 67 62 56 52 50 48 43 39 40 41 43 43 44 44 44 41 39 38 38 37 37 37 35 32 29 29 29 26 22 19 18 17 15 13
90 89 87 86 85 85 85 84 84 85 84 84 83 81 80 81 81 80 78 78 80 80 80 80 82 83 81 76 72 70 67 61 56 54 52 46 41 40 40 42 45 46 46 45 44 43 42 41 41 41 40 37 33 32 31 30 28 23 20 20 19 18 16
90 90 90 89 88 87 86 85 84 84 83 83 83 82 82 82 82 82 80 79 79 80 81 82 82 83 84 81 76 72 70 67 62 59 56 50 45 43 42 42 43 45 47 48 47 46 45 44 43 43 43 39 35 34 33 31 28 23 21 20 20 20 18
90 92 93 92 90 88 86 85 83 83 82 83 83 83 83 83 83 82 81 79 79 80 82 84 84 83 84 85 82 77 74 70 67 64 62 57 51 49 49 48 45 45 47 48 48 48 48 46 44 44 43 41 39 38 35 31 28 24 22 21 21 21 20
91 91 92 92 90 88 86 84 82 82 82 83 83 83 83 82 83 83 81 79 80 80 82 84 85 84 85 85 85 83 79 75 71 68 67 64 58 56 56 55 53 50 50 48 47 48 49 49 48 47 45 42 41 39 36 34 31 27 25 25 23 21 20
91 90 91 91 90 88 86 84 83 82 82 83 84 83 82 82 83 83 82 80 80 80 81 83 85 86 86 86 86 86 85 81 77 73 71 69 66 62 61 60 59 55 51 48 47 49 50 49 50 49 47 44 42 41 39 37 35 31 30 29 26 24 22
91 90 90 91 90 89 88 86 84 83 82 82 83 84 84 83 84 84 83 82 81 81 81 83 85 87 88 88 87 87 87 86 83 79 76 73 71 68 65 63 61 56 53 52 51 51 52 52 52 52 50 47 45 44 42 40 39 36 33 31 29 27 26
91 90 90 89 89 89 89 88 86 84 83 83 83 84 85 85 84 85 85 83 82 82 82 82 84 87 88 90 90 88 88 88 87 85 82 79 75 73 70 67 62 58 58 60 57 54 53 53 53 54 54 52 49 47 44 42 41 38 35 32 29 28 28
91 91 90 89 88 89 89 89 88 87 85 84 84 84 85 85 85 85 86 85 84 83 82 82 83 85 88 90 91 90 88 88 89 89 88 85 82 78 75 72 69 65 65 66 63 60 59 57 55 55 54 51 49 49 47 46 44 42 40 37 34 32 32
92 91 90 89 88 88 89 89 89 88 87 85 84 85 85 85 86 86 86 86 85 84 84 83 83 84 85 88 91 92 91 90 89 90 91 90 88 85 81 77 75 73 72 71 69 66 65 64 61 59 56 52 49 49 50 49 47 45 44 42 40 38 36
92 91 90 90 89 89 89 90 90 90 89 87 86 86 85 86 86 87 87 87 87 86 86 85 84 84 84 86 90 92 93 92 91 90 91 91 91 89 87 84 80 78 77 76 74 72 69 66 64 62 62 60 57 55 54 52 49 47 46 45 43 41 40
91 91 91 90 90 90 90 91 91 91 90 89 88 87 86 87 87 88 88 88 88 88 87 86 86 85 85 86 88 91 93 94 93 91 91 91 91 91 90 89 87 83 81 79 78 77 75 71 67 64 62 62 62 62 61 57 53 50 47 45 43 43 44
89 90 91 92 92 92 92 92 92 92 92 91 90 89 88 88 88 88 89 89 88 88 88 88 87 87 87 86 86 87 89 91 93 93 92 92 91 91 91 91 91 89 87 84 82 80 79 77 74 71 67 64 62 62 62 61 58 54 50 47 45 44 45
86 89 91 92 92 93 93 93 93 93 93 93 93 92 91 90 90 89 89 88 88 89 89 90 90 89 88 87 86 85 86 88 90 93 94 94 93 92 91 91 92 92 91 89 87 84 82 81 79 77 74 72 69 65 63 63 62 60 56 51 47 46 45
82 86 89 91 92 93 94 93 94 94 95 95 94 94 93 92 92 91 90 89 89 90 90 91 91 91 90 89 88 87 86 86 88 91 94 96 96 95 94 93 92 92 93 93 92 90 87 85 83 81 79 76 74 72 69 66 65 64 61 55 51 48 47
77 82 87 90 92 93 94 94 95 95 95 96 96 96 95 94 93 93 92 90 90 91 91 92 92 93 92 91 90 89 88 87 88 90 92 95 97 98 97 96 94 93 94 95 95 95 93 90 88 85 83 80 78 76 74 72 70 68 66 62 57 52 50
74 78 83 87 89 91 93 95 96 97 97 97 97 96 96 96 95 94 94 93 92 92 92 93 93 94 94 93 91 90 89 89 89 89 90 92 95 97 99 98 97 96 95 95 95 96 96 95 93 90 88 85 82 80 78 76 74 73 72 69 64 58 54
73 76 79 82 85 88 90 92 94 95 96 97 98 98 98 97 97 96 96 95 95 94 93 94 94 94 95 95 95 94 91 90 90 89 88 89 91 94 97 98 99 98 97 96 95 95 96 97 97 95 93 91 88 85 83 80 78 76 75 74 72 68 62
72 74 76 77 80 83 86 89 91 93 95 96 97 98 99 99 99 99 98 98 98 97 96 95 94 95 94 94 94 94 92 88 87 87 87 87 89 90 93 96 98 99 99 98 96 95 96 96 97 97 97 96 93 91 89 86 82 80 78 76 77 77 73
69 72 73 74 76 79 82 85 88 91 93 95 97 98 100 100 100 101 101 101 100 99 99 97 96 96 95 92 91 91 90 89 88 88 89 91 92 91 91 92 95 97 100 100 99 98 96 96 96 97 97 97 97 95 94 91 88 86 83 81 81 82 80
67 70 71 72 74 77 80 83 86 89 92 93 95 97 99 100 101 102 102 103 102 101 101 100 99 98 96 94 94 93 92 92 93 92 92 94 95 94 93 93 93 94 97 100 101 101 100 98 97 96 96 96 96 96 96 95 93 91 89 87 86 85 84
66 67 69 71 73 76 78 81 84 87 90 91 93 95 97 99 100 102 103 103 103 103 102 102 102 100 97 95 96 96 94 93 93 95 97 97 98 97 95 95 95 94 95 97 99 101 103 102 101 100 98 96 95 95 95 95 95 95 94 93 92 90 88
66 66 68 70 73 75 77 80 82 85 88 90 91 93 95 97 99 101 102 103 103 103 103 103 103 103 102 100 98 98 97 96 95 97 98 99 100 102 100 97 97 96 96 97 98 99 100 102 103 103 102 101 99 98 96 95 95 95 96 96 96 95 94
69 68 68 69 71 74 76 79 82 84 87 89 90 92 94 96 98 100 102 103 103 103 103 104 103 104 104 104 102 101 101 100 99 99 100 100 102 104 104 102 100 99 99 99 99 98 99 99 101 102 103 103 103 102 100 99 97 96 96 97 97 97 97
72 72 71 70 71 73 75 78 81 84 86 88 90 92 94 96 98 100 102 103 103 103 103 104 104 105 105 105 105 105 104 103 102 101 102 103 104 105 105 104 103 103 102 101 101 100 100 99 99 100 101 102 103 104 103 102 101 100 99 98 98 98 98
69 73 75 74 73 73 75 77 80 83 85 88 90 92 94 95 97 99 101 103 104 104 104 105 105 106 106 106 107 107 107 107 106 104 101 101 102 103 105 105 105 105 104 103 103 102 101 101 100 100 100 100 101 103 104 104 104 103 103 102 101 101 100
56 65 72 76 77 76 76 77 78 81 83 86 89 91 93 95 97 99 101 103 104 104 105 105 106 107 108 108 109 109 109 109 110 109 106 103 100 100 102 105 106 105 105 105 105 104 104 103 103 102 101 101 100 101 102 103 104 105 105 104 104 103 103
42 50 60 68 75 78 79 79 79 80 82 84 87 89 92 94 96 98 100 102 104 105 105 106 107 107 108 109 110 111 111 111 111 112 111 110 108 105 104 104 105 105 105 106 106 106 106 105 104 103 103 102 101 101 101 101 102 103 105 105 106 106 105
34 39 46 54 62 70 77 81 82 83 83 84 85 87 90 92 94 97 99 101 103 105 106 107 107 108 109 110 111 112 113 113 113 113 113 114 114 112 110 109 108 107 106 107 107 107 108 107 105 105 104 104 104 103 103 102 102 102 103 104 106 107 107
32 35 39 44 50 57 65 73 79 83 85 86 87 87 89 91 93 95 97 100 101 103 105 107 108 108 110 111 112 113 114 114 115 115 115 115 116 116 115 114 113 112 111 110 109 108 108 109 108 108 108 108 108 107 106 105 105 104 104 104 105 106 108
33 34 37 40 44 48 54 60 67 75 81 86 89 90 91 91 92 94 96 98 100 102 104 106 108 109 110 111 112 113 114 115 116 116 117 117 117 117 117 117 117 117 117 116 114 112 111 110 110 110 111 111 111 111 111 110 109 108 107 106 106 106 106
31 34 37 39 42 45 49 53 58 64 70 76 83 88 92 94 94 95 95 97 99 100 102 105 107 109 110 111 113 114 115 115 116 117 118 118 118 119 119 120 120 120 121 120 119 118 117 114 113 112 112 112 112 112 113 112 112 111 111 110 109 108 108

ECMWFFLT2_250_spd_096.txt.gz
Wind_Speed
79 81 82 82 82 82 82 80 79 78 78 76 76 77 78 78 77 75 73 72 71 68 66 65 63 61 58 56 53 50 47 46 47 48 45 42 40 38 37 36 34 32 32 31 30 28 26 24 22 21 20 18 16 14 12 9 6 4 3 3 3 3 2
81 82 82 82 84 84 81 80 80 80 79 77 77 77 78 79 79 77 76 75 73 71 68 66 64 63 60 57 55 53 50 47 47 48 46 44 42 41 40 39 35 33 33 33 32 31 29 27 26 25 24 22 19 17 16 14 12 9 6 3 3 3 2
84 83 83 83 83 82 80 81 82 81 80 78 78 78 78 80 80 79 80 79 77 74 71 67 66 64 62 60 57 56 54 50 49 49 47 46 45 44 43 40 37 35 33 34 35 34 33 31 30 30 28 26 23 20 19 18 16 14 10 7 5 4 4
86 85 83 82 82 80 81 82 81 80 81 79 78 79 79 80 81 81 82 83 81 79 76 70 66 65 64 63 60 58 57 54 51 50 49 49 49 48 45 43 40 38 35 36 37 37 36 35 34 33 31 29 27 24 22 21 19 17 15 12 9 8 7
87 85 83 82 82 81 81 81 80 81 81 79 78 79 80 80 81 82 83 84 84 84 83 77 71 69 68 66 63 61 60 58 54 52 51 51 51 50 47 45 44 42 40 39 39 40 39 38 37 36 34 31 29 27 25 24 22 20 19 15 13 12 11
87 86 85 83 83 82 82 82 82 83 82 80 79 80 80 80 81 82 84 85 84 85 86 83 79 77 73 69 67 64 62 61 59 55 53 53 52 50 47 45 44 44 43 41 41 41 41 40 39 37 36 34 32 30 28 28 26 24 22 20 17 16 16
87 87 86 85 84 83 83 84 84 85 84 82 81 81 81 81 81 82 84 85 85 85 85 85 84 81 76 74 71 68 65 63 62 59 54 53 53 51 47 45 44 45 46 45 44 43 41 40 39 38 38 36 34 33 32 31 29 27 26 25 22 19 19
86 86 88 88 86 85 86 86 85 85 84 82 81 82 83 82 83 83 85 86 87 86 85 84 84 82 78 77 75 72 69 66 64 62 57 54 55 53 49 48 47 47 48 47 46 44 41 41 41 40 40 39 36 35 35 34 32 30 29 28 26 23 21
86 88 91 91 89 88 87 85 84 83 82 81 81 81 82 83 84 84 85 85 87 87 86 84 85 84 81 79 78 76 73 70 67 66 60 56 57 55 51 51 50 48 47 48 46 43 41 42 44 44 43 41 38 39 40 37 34 33 32 30 28 26 24
88 89 91 90 89 88 85 82 81 82 82 82 81 81 82 83 83 83 83 85 87 88 87 86 85 85 83 82 81 79 77 74 70 68 65 59 58 57 53 52 51 47 46 46 46 45 42 42 45 46 46 44 42 42 42 41 38 36 35 33 31 29 27
90 90 90 89 88 86 84 82 82 82 82 82 82 82 82 81 81 82 83 85 87 88 88 87 86 85 84 84 83 82 80 78 74 72 69 63 60 59 56 53 51 47 45 46 46 48 48 46 45 44 45 46 46 45 44 43 42 40 38 36 34 31 28
90 90 90 89 89 88 87 85 84 83 83 83 83 82 81 81 81 83 85 87 88 88 88 88 87 86 86 85 85 84 82 81 78 75 72 67 63 61 58 54 52 49 47 49 49 50 52 53 51 48 46 47 47 47 46 46 45 44 42 40 37 34 31
90 90 89 89 89 89 89 88 87 85 84 84 84 82 81 82 82 84 86 87 89 87 86 87 87 87 88 87 87 86 85 84 82 78 76 71 66 63 59 55 53 53 53 54 54 54 54 56 57 55 52 50 48 48 48 47 47 46 45 43 41 38 36
91 90 89 88 88 89 90 90 89 87 86 85 84 83 82 83 84 85 86 87 88 86 86 86 87 87 88 88 88 88 87 87 85 82 80 75 68 64 60 57 58 59 59 58 58 57 56 56 57 56 54 53 51 50 50 49 49 49 47 46 44 42 40
91 90 89 88 88 88 89 90 90 89 88 86 85 84 84 84 84 85 87 87 87 86 86 87 87 87 87 88 90 90 89 90 89 86 83 78 73 69 63 62 64 64 61 59 58 59 58 57 56 55 55 55 55 53 52 52 53 52 50 49 48 46 44
92 91 90 88 88 88 89 90 91 90 89 87 86 86 85 85 85 85 86 86 86 86 87 87 88 88 88 88 90 91 91 91 91 90 87 81 78 74 68 67 69 68 64 60 58 59 60 59 58 56 55 57 57 56 56 56 55 54 53 52 51 49 47
92 92 90 89 89 90 90 90 91 91 90 89 88 87 86 85 86 86 85 84 85 87 88 88 89 89 89 89 89 91 92 92 92 92 91 87 84 79 73 72 73 72 68 64 60 60 60 60 60 58 57 57 58 58 58 58 56 53 52 52 52 50 49
91 91 91 91 91 91 91 90 90 91 91 90 89 88 87 86 86 86 85 84 85 87 88 90 90 90 90 90 89 90 91 93 93 93 94 94 93 88 80 76 76 76 74 70 66 64 62 61 61 61 59 59 59 59 59 59 57 54 52 51 51 49 47
89 90 91 91 91 91 91 91 90 91 91 91 90 89 88 88 87 87 87 86 86 86 88 90 91 91 91 90 90 90 91 93 94 95 96 97 98 97 90 83 80 80 79 75 73 71 69 67 65 63 62 61 61 62 63 62 59 57 55 54 53 50 47
86 88 90 91 91 92 92 92 91 91 91 92 91 90 89 88 88 88 88 88 88 88 88 90 91 92 92 91 91 91 91 92 94 97 98 97 99 101 99 93 88 86 85 82 79 77 75 73 71 69 67 65 63 61 64 66 65 61 57 56 56 55 54
84 86 88 90 91 92 93 93 92 92 92 92 92 92 91 90 90 90 89 89 89 89 89 90 91 92 93 93 92 92 92 93 94 96 98 98 99 101 102 101 97 94 92 90 86 83 80 78 76 74 74 73 68 63 64 67 68 65 61 59 57 56 56
82 85 87 89 90 92 93 93 93 93 93 93 92 93 93 93 92 92 91 91 91 91 90 91 92 93 93 93 92 92 93 93 94 95 96 98 99 100 101 102 102 100 99 97 95 91 87 84 81 78 78 78 76 74 72 71 71 69 67 64 62 60 59
77 82 85 87 89 91 92 93 94 94 94 94 94 94 94 95 95 94 93 93 93 93 92 92 92 91 92 92 92 93 94 93 93 94 95 96 98 100 102 102 102 102 101 101 100 98 95 93 89 85 83 81 81 81 80 77 75 73 72 72 70 67 66
72 77 82 85 87 89 91 92 93 94 95 95 95 95 95 96 96 96 96 95 95 95 95 94 92 91 91 89 87 89 93 94 93 93 94 95 96 97 100 102 103 103 103 102 102 101 100 99 97 94 90 88 86 85 83 83 81 78 77 76 74 70 69
68 72 76 80 84 87 89 91 92 94 95 95 96 96 96 97 97 97 98 97 98 97 97 96 94 92 90 87 83 85 89 93 94 93 94 95 96 97 98 100 102 104 105 104 104 104 103 103 102 100 98 96 94 91 88 88 87 84 82 81 78 74 73
64 68 71 76 80 83 86 88 90 93 94 94 95 96 97 97 98 99 99 99 99 99 99 98 97 94 92 91 89 88 88 90 93 96 97 97 97 97 99 100 101 103 105 106 106 106 106 105 104 103 103 102 101 99 97 95 93 90 87 85 83 81 80
61 64 67 71 75 79 82 84 87 89 91 93 94 96 97 98 99 99 100 101 101 101 101 100 100 98 97 97 96 94 91 89 89 93 97 99 99 99 100 101 102 102 103 105 107 108 108 108 107 106 105 104 103 103 102 101 100 98 95 92 89 88 86
59 61 65 68 71 74 77 79 82 85 88 90 93 95 96 97 98 99 100 101 101 101 102 102 102 101 100 100 99 98 96 95 93 93 94 96 98 100 101 101 102 103 104 105 107 108 109 110 109 108 107 107 106 105 103 103 102 101 100 98 96 95 93
59 60 62 65 67 69 71 75 78 81 83 86 89 92 94 96 98 99 100 101 101 101 102 102 103 103 102 101 101 99 97 96 97 98 98 97 97 98 100 101 101 103 105 107 108 108 109 109 110 110 109 109 108 107 106 105 104 102 102 101 100 99 99
61 60 60 62 64 66 69 71 75 77 80 82 85 87 91 94 97 99 100 101 102 102 102 103 104 104 104 103 103 103 100 97 95 96 98 99 99 99 101 102 102 103 105 107 108 108 108 109 109 109 110 110 110 109 108 108 106 105 103 102 101 101 101
63 62 61 61 62 65 67 70 73 75 77 79 82 84 87 91 94 97 99 100 102 103 103 104 105 105 105 105 105 105 104 102 99 96 96 97 98 99 100 100 102 105 107 109 110 109 108 108 108 108 108 109 109 110 110 109 109 108 106 105 104 103 102
63 65 64 63 63 64 66 68 71 73 75 78 80 83 86 89 92 95 98 100 101 103 104 105 106 107 107 107 107 106 105 105 104 102 100 99 99 101 102 101 101 103 106 108 109 109 108 108 108 107 107 108 108 108 109 109 109 109 108 107 107 106 105
56 62 66 66 66 65 65 67 69 71 74 76 79 81 85 88 91 94 97 99 101 102 104 105 107 108 108 108 109 109 108 107 107 106 105 102 101 102 104 105 106 107 107 107 107 107 108 109 109 108 108 107 107 107 107 108 108 108 109 109 109 108 107
43 53 61 66 68 69 69 68 69 70 72 74 77 80 83 86 89 92 95 97 100 102 103 105 107 108 109 110 110 111 111 111 110 109 109 108 105 103 104 105 107 109 110 110 108 107 107 107 108 109 110 109 108 108 107 107 107 108 108 109 109 110 110
30 38 47 55 62 68 71 72 72 72 73 73 75 77 80 83 86 89 92 95 98 100 102 104 106 108 109 111 112 113 113 113 113 112 112 113 112 110 110 109 109 110 110 111 110 109 109 109 108 108 109 110 110 110 110 109 108 108 108 108 109 110 110
24 28 33 40 47 55 62 68 73 76 76 76 76 77 78 81 83 86 89 92 95 98 101 103 105 107 109 111 112 113 114 115 115 115 115 115 115 115 115 115 115 114 114 113 112 111 112 112 112 110 110 110 110 111 111 111 110 110 110 110 109 109 110
22 25 29 33 37 42 48 55 62 69 74 78 80 81 81 81 82 84 87 90 92 95 98 101 104 106 108 110 112 114 115 116 117 117 117 117 117 117 118 118 118 118 118 117 116 115 114 114 114 114 113 113 112 112 111 111 111 112 112 111 111 111 110

ECMWFFLT2_250_spd_102.txt.gz
Wind_Speed
86 86 87 87 86 87 88 87 87 87 87 88 84 78 74 70 65 60 57 54 54 55 55 53 52 52 49 42 39 37 35 34 35 36 37 37 33 30 30 30 29 27 27 27 26 24 23 22 21 19 17 14 11 9 7 5 4 4 3 4 3 2 2
88 87 88 89 88 89 89 88 89 89 89 88 86 83 80 76 71 66 62 58 54 53 53 53 53 53 52 47 42 40 38 36 36 38 39 39 36 32 31 32 31 29 28 29 29 28 26 25 23 23 21 18 15 13 11 9 7 5 4 3 3 3 3
87 86 88 89 88 89 89 88 89 90 89 87 85 85 83 81 78 73 68 63 57 55 53 49 48 51 54 53 46 41 40 38 37 38 40 40 37 34 34 36 35 32 30 31 32 32 30 28 26 26 25 23 20 18 16 14 11 9 8 6 5 4 4
86 85 87 88 87 87 88 87 88 88 88 88 86 86 86 84 83 79 73 66 61 61 59 50 44 45 49 52 48 43 41 40 38 39 41 42 40 37 37 39 38 35 33 33 34 35 34 32 30 29 28 26 24 22 20 19 16 14 13 12 10 8 7
84 84 87 87 86 87 88 88 88 88 89 90 88 86 86 86 84 81 77 72 66 65 65 57 48 42 42 45 47 45 44 41 39 39 41 42 41 38 38 38 37 34 35 36 36 38 38 36 33 32 30 29 27 26 24 22 20 19 18 16 15 14 12
85 85 86 86 85 87 90 90 90 90 91 92 91 88 87 86 84 81 80 79 73 69 69 64 53 44 41 43 46 48 47 44 41 40 40 40 41 40 38 38 38 35 36 38 39 39 40 39 37 34 32 31 30 29 28 26 24 22 22 21 20 19 17
85 87 87 87 86 88 91 91 91 92 92 93 93 92 90 88 85 82 83 84 80 74 73 69 59 50 45 46 48 49 50 49 45 43 42 42 41 39 39 41 42 41 40 40 41 42 41 40 39 35 32 33 33 32 32 30 27 26 25 25 23 22 21
85 86 86 87 87 89 92 91 91 93 93 92 92 92 93 92 90 86 86 87 86 81 77 71 65 60 54 52 52 52 51 51 48 45 45 47 45 42 42 45 46 46 44 41 41 44 43 40 39 36 32 34 36 36 35 33 31 30 29 28 26 24 24
85 85 85 87 87 87 90 90 90 92 93 91 91 92 93 94 94 91 87 87 88 87 82 73 66 61 54 51 55 58 56 52 49 46 44 47 49 46 45 49 50 49 48 43 40 44 47 44 40 37 34 36 38 38 37 35 33 32 31 30 28 27 27
85 86 87 89 88 87 89 90 91 93 93 93 93 94 94 94 94 93 90 88 89 90 87 78 69 60 47 40 47 59 64 60 54 49 45 45 48 46 44 48 50 50 51 49 44 43 46 46 42 39 38 39 38 38 39 38 35 34 32 30 28 28 29
86 86 88 89 90 89 90 90 91 92 92 93 94 95 95 94 93 92 93 92 89 89 87 81 75 67 55 43 41 49 62 68 63 54 47 46 45 43 41 45 50 51 50 51 50 48 47 45 42 41 41 41 39 38 39 38 37 37 36 33 31 31 31
87 87 88 89 90 90 90 88 88 90 92 93 93 94 95 94 93 93 94 94 92 89 87 82 77 74 66 54 46 46 54 66 69 61 53 49 46 44 43 45 50 53 51 48 47 49 52 52 48 45 44 42 40 40 41 41 40 40 39 37 36 34 34
89 88 88 89 89 89 89 88 88 89 91 92 94 95 96 96 97 97 96 94 91 89 89 86 80 79 76 64 52 46 46 58 69 67 61 58 55 53 53 52 53 56 57 54 49 47 50 53 51 48 46 43 40 40 41 42 42 40 40 41 40 39 37
89 88 88 88 89 89 90 89 90 90 91 94 97 98 98 99 101 101 97 93 88 86 88 91 86 82 81 75 63 51 44 52 67 71 67 64 62 61 62 62 61 61 62 63 62 59 57 56 54 52 50 47 45 43 41 41 43 43 43 44 43 42 41
90 90 89 88 88 90 91 92 93 93 94 97 99 99 98 99 101 98 93 90 88 86 88 92 92 87 83 81 76 65 53 48 55 64 67 66 64 64 66 66 66 66 67 67 67 68 66 64 62 60 58 54 52 51 50 49 50 48 47 46 45 44 44
92 92 91 90 90 91 92 93 93 93 92 93 94 95 94 96 96 93 90 89 89 90 90 92 94 92 88 85 79 72 66 56 49 53 60 62 62 64 66 68 69 68 70 70 68 67 68 67 66 65 63 61 59 58 58 59 58 54 51 50 48 46 44
93 93 93 93 92 91 92 92 90 90 90 89 89 89 89 90 92 90 89 90 90 90 91 91 91 91 91 91 85 77 73 69 60 57 58 58 63 67 69 71 72 70 71 72 69 66 65 65 66 66 66 65 65 63 61 62 61 58 55 54 52 49 48
94 95 94 93 92 90 90 90 88 88 89 88 86 85 86 88 90 89 87 88 90 90 89 90 91 90 90 93 93 87 81 76 70 65 63 64 69 74 74 74 73 71 72 73 72 68 65 62 62 65 67 68 68 67 64 64 64 61 59 57 55 53 52
95 96 95 93 92 90 88 87 87 88 88 88 86 85 85 86 87 87 84 83 85 88 89 88 85 84 86 89 91 90 87 84 80 78 77 76 77 78 78 77 76 73 73 75 75 72 69 66 63 63 67 70 71 71 69 68 66 63 61 59 58 57 56
95 96 95 93 92 90 88 87 88 88 87 87 88 86 86 86 84 84 82 77 76 82 88 87 80 80 85 86 87 89 90 88 87 87 87 86 84 83 82 81 81 77 75 77 79 77 74 73 69 65 65 69 72 74 74 71 68 65 62 60 60 61 60
94 95 94 94 94 92 88 87 88 88 86 86 87 87 87 86 84 83 81 73 67 71 81 84 82 84 86 84 83 89 93 92 90 89 90 89 87 86 84 83 85 83 77 78 83 83 80 79 76 71 68 67 69 73 76 75 70 66 64 63 62 62 61
90 93 95 95 95 94 91 88 88 89 88 88 87 86 86 86 85 85 84 76 65 62 69 76 78 83 87 87 86 89 93 94 93 92 92 91 90 89 87 86 88 87 81 79 84 87 86 84 81 77 73 70 68 69 72 75 72 69 68 67 65 63 62
85 90 94 95 94 94 94 93 91 91 90 90 89 87 84 83 83 84 84 81 72 65 69 76 79 81 84 86 88 92 95 98 98 95 94 92 92 93 92 91 92 92 88 84 84 86 86 86 86 84 79 75 72 70 70 72 73 72 71 70 68 66 64
80 84 90 94 94 93 95 96 94 92 93 92 91 90 87 83 82 82 81 77 71 66 67 73 78 83 87 88 87 90 94 98 100 100 98 95 93 94 95 96 96 97 96 93 90 89 87 86 87 90 88 82 77 74 72 71 71 72 72 70 70 69 68
77 81 87 91 93 93 95 97 95 93 94 94 93 92 91 89 85 83 83 81 75 69 68 69 70 78 90 95 93 91 92 95 98 100 101 101 99 98 98 97 96 97 99 99 98 97 95 91 88 90 93 90 84 78 76 74 72 71 72 72 71 70 70
73 78 83 87 91 93 95 97 97 95 94 95 94 92 93 93 90 86 85 87 84 79 76 73 70 73 82 90 93 95 95 95 96 98 99 100 102 101 100 99 97 96 99 101 102 102 102 100 94 90 92 95 92 85 80 77 75 73 72 72 72 72 72
68 73 78 82 88 93 95 95 97 97 95 96 97 96 94 95 95 93 90 90 91 88 84 81 78 76 78 81 85 89 93 95 97 99 99 99 100 100 100 100 98 97 98 101 103 103 103 103 101 95 92 94 96 93 87 81 78 76 74 73 72 71 72
65 69 75 80 85 90 93 95 96 97 97 96 96 97 97 96 97 98 97 96 95 94 91 88 85 82 80 81 82 84 87 90 93 96 100 101 102 101 100 100 100 99 99 100 102 103 103 104 105 102 97 95 96 98 95 89 84 80 77 75 73 72 71
65 67 72 77 82 86 90 93 95 97 97 97 97 98 99 99 98 97 98 99 98 97 94 92 91 88 84 82 83 84 86 88 90 93 96 100 103 104 103 102 101 101 101 101 101 102 102 103 105 106 104 101 99 98 99 98 94 90 86 82 78 75 74
65 68 71 74 78 82 86 89 92 94 95 96 97 99 99 100 99 98 98 99 100 100 99 96 94 93 90 87 84 83 84 87 90 93 95 97 100 102 103 103 102 103 104 104 104 104 103 103 104 106 106 106 104 102 100 101 101 101 98 94 88 84 80
63 66 68 71 74 79 83 85 88 90 92 93 95 98 100 100 100 100 100 100 99 100 103 102 99 97 96 95 91 88 85 85 87 91 94 96 97 100 102 102 102 102 104 106 107 107 106 105 104 105 107 108 108 107 105 104 104 105 105 103 99 96 92
63 63 65 67 70 74 78 82 85 87 90 91 91 93 97 99 100 101 102 102 101 100 102 104 103 101 100 99 98 96 94 91 89 91 93 95 95 98 101 103 103 102 103 104 106 108 109 108 107 107 107 108 108 108 108 108 107 107 109 109 108 106 105
65 63 63 64 68 70 72 77 81 84 87 89 90 91 93 96 98 100 102 103 104 103 103 104 104 104 104 103 102 101 100 97 94 94 95 96 97 98 101 103 104 104 104 104 105 107 109 110 109 108 109 110 110 109 109 110 110 109 109 112 113 113 113
65 64 64 64 66 67 69 72 76 79 82 84 87 89 91 93 95 98 100 102 103 105 105 106 105 105 105 106 105 103 103 102 100 98 98 98 98 99 101 103 104 105 106 106 106 107 108 110 110 109 109 110 112 112 111 111 111 111 110 110 113 114 116
62 64 65 67 66 66 67 69 72 74 76 78 81 84 87 90 92 95 98 100 102 103 104 106 107 107 107 108 107 106 105 105 105 103 102 102 102 102 101 102 103 104 105 106 107 108 109 110 111 110 110 110 111 113 114 113 113 113 112 111 111 113 115
57 61 63 67 68 67 67 68 70 72 73 75 76 79 82 85 88 91 93 96 99 102 103 105 106 108 109 109 109 109 109 109 109 108 106 106 106 106 105 104 104 104 104 105 107 108 109 111 112 112 112 112 112 113 114 115 115 115 115 113 112 112 113
49 56 59 63 66 67 67 68 69 71 72 72 72 74 76 80 83 86 89 92 95 99 102 104 106 107 109 110 111 111 111 112 112 112 111 110 110 111 110 109 108 108 108 107 108 108 109 110 112 113 113 113 113 114 115 116 117 117 118 117 116 115 114

ECMWFFLT2_250_spd_105.txt.gz
Wind_Speed
86 88 88 87 88 86 83 82 81 82 82 82 79 74 73 73 66 59 57 55 53 52 51 51 51 48 47 45 43 42 40 36 34 36 37 36 33 29 26 26 27 25 24 23 22 20 19 17 16 14 12 11 9 7 5 3 4 5 5 4 3 2 1
86 88 88 88 89 87 84 83 83 84 85 84 82 78 76 76 70 63 60 59 58 57 55 54 53 51 48 46 44 42 39 37 36 37 37 38 37 33 29 28 28 28 27 26 25 24 22 21 19 17 16 14 12 11 9 7 5 5 5 6 5 4 3
86 86 87 87 87 86 85 87 87 86 87 86 84 81 79 79 74 68 63 60 60 62 61 58 56 53 49 48 47 44 39 38 38 38 37 38 39 36 32 29 29 30 29 28 27 27 26 24 22 20 18 18 16 14 13 12 11 9 7 6 6 5 4
87 87 87 87 87 87 87 87 87 86 87 87 85 82 81 81 78 72 68 63 61 64 64 63 61 56 51 50 50 47 42 39 38 39 39 39 40 38 33 31 30 30 30 30 29 30 29 28 25 23 21 20 20 18 17 17 16 15 12 10 8 7 5
88 87 88 88 88 89 89 88 87 86 86 86 86 83 81 82 79 74 71 67 64 65 65 64 63 58 53 51 50 48 44 40 38 38 41 42 42 39 36 34 34 32 32 32 32 32 32 31 28 26 25 24 23 22 21 21 21 20 18 15 13 12 10
88 88 89 88 88 90 90 89 88 88 87 88 88 87 84 82 80 74 70 69 67 67 66 64 63 60 55 52 51 47 44 41 37 36 38 41 42 42 40 38 37 35 33 32 33 34 33 34 32 29 28 28 27 26 25 25 25 24 22 19 18 16 14
87 86 86 86 87 90 91 90 90 90 90 90 91 91 88 84 81 75 70 69 69 67 66 64 63 61 56 52 51 48 46 44 38 35 37 39 40 42 41 39 37 36 34 33 34 34 34 36 35 32 31 31 30 29 28 27 27 27 25 23 21 19 18
85 85 84 84 86 88 89 89 90 91 91 91 92 93 91 87 83 78 74 72 71 68 67 65 63 61 57 54 53 50 49 46 37 35 40 40 40 41 40 40 39 38 36 35 36 36 36 38 37 34 34 33 32 32 31 31 30 29 28 26 24 22 21
87 88 87 87 88 88 88 89 90 92 92 92 93 94 95 93 88 83 80 77 74 70 67 64 63 62 59 57 56 52 51 46 34 33 39 39 39 40 39 40 41 40 38 37 38 38 39 40 39 37 36 34 34 34 34 33 32 31 30 28 26 25 23
88 90 90 90 90 89 89 89 91 93 93 93 95 96 97 96 92 87 84 80 76 71 67 63 62 62 60 59 58 54 53 49 35 31 37 40 39 39 40 41 41 41 41 39 40 42 42 42 41 38 36 35 36 36 36 35 34 34 34 32 29 27 25
89 90 90 90 90 89 88 89 91 94 94 95 96 97 97 98 95 90 86 81 76 72 69 64 62 62 61 60 59 55 55 53 41 31 34 42 42 39 40 42 43 44 45 44 43 45 44 44 44 40 36 37 38 38 38 37 37 36 35 34 32 29 27
90 91 92 91 90 89 89 90 94 98 99 99 99 99 99 100 99 94 88 83 79 74 72 68 64 62 61 59 57 56 56 56 48 35 31 38 45 45 42 42 44 46 47 47 47 47 45 45 45 42 40 40 40 40 40 39 37 36 34 32 32 30 30
92 92 93 92 92 92 92 93 96 99 101 102 101 101 101 102 102 100 93 87 83 78 75 73 67 62 61 59 56 55 57 58 53 42 33 33 41 48 46 43 45 47 48 48 47 47 48 48 46 45 45 45 42 42 44 42 38 37 36 34 32 31 30
93 91 92 92 93 95 96 95 95 97 99 100 100 100 101 102 102 102 98 92 87 82 79 77 74 68 64 60 56 55 58 60 56 46 39 35 39 47 48 44 46 49 50 51 49 48 49 49 49 49 48 45 42 41 45 46 42 39 39 37 33 31 29
93 92 92 94 95 95 97 96 94 95 96 96 97 98 99 100 99 99 99 96 92 88 84 82 79 76 70 63 58 58 60 63 61 51 44 42 44 49 51 45 44 48 49 49 50 51 52 51 50 51 50 49 47 45 46 47 43 40 40 39 36 33 32
95 95 96 97 97 96 96 96 94 94 95 95 97 98 98 97 96 95 96 96 95 91 87 86 84 81 79 73 66 63 62 64 62 52 49 50 48 53 59 55 47 47 48 47 47 49 53 55 54 52 52 53 51 50 52 53 48 43 41 40 37 36 35
97 98 98 98 99 98 96 95 94 93 94 94 96 97 97 96 94 93 93 92 93 91 88 88 88 84 83 81 74 70 67 64 57 51 53 56 51 51 61 66 58 51 50 51 50 49 51 55 56 54 54 55 54 54 56 57 55 52 45 41 38 38 38
98 99 98 97 98 98 96 95 95 94 93 94 94 95 95 91 87 88 91 90 91 92 90 90 91 89 86 83 78 75 72 65 58 55 58 61 57 52 56 66 67 61 56 57 57 55 54 55 57 58 58 58 60 61 60 58 59 59 53 48 46 45 46
99 99 98 98 98 98 96 95 95 95 94 94 94 94 94 89 78 75 82 88 91 95 94 91 90 91 90 86 81 78 75 70 66 65 61 59 60 56 54 59 65 65 62 61 62 60 58 57 58 61 62 62 63 65 63 61 62 62 58 54 52 52 52
99 99 99 99 98 97 97 95 95 95 95 94 93 93 94 93 84 74 76 85 92 97 98 94 89 88 91 90 85 82 79 76 77 73 63 58 60 59 55 55 60 65 66 64 64 64 61 57 56 60 65 66 66 66 65 63 62 62 60 58 56 56 57
98 98 99 99 98 97 97 96 94 94 95 94 93 93 92 94 93 86 81 85 91 95 97 97 93 90 89 88 86 87 84 81 82 80 69 62 62 63 61 56 57 66 71 69 66 65 62 58 55 58 64 67 67 67 65 63 63 63 64 64 63 62 63
95 97 98 98 98 97 97 96 94 94 94 93 93 93 92 92 94 94 90 90 93 94 93 95 96 94 91 86 84 87 87 83 83 83 79 72 68 70 73 68 64 68 74 76 73 70 67 64 60 60 64 67 68 68 67 66 66 67 69 71 70 68 68
91 95 96 97 98 97 97 96 95 94 94 94 93 91 91 91 93 94 94 93 94 95 95 94 93 92 94 93 89 86 85 82 81 84 86 81 76 78 83 81 74 72 74 79 81 79 75 73 70 67 67 69 69 70 71 71 70 69 70 73 74 74 72
86 91 95 97 99 99 98 97 96 95 94 93 91 90 90 91 92 93 94 94 93 95 96 97 95 91 91 95 96 94 91 86 82 83 87 85 80 82 88 87 82 77 75 77 82 84 82 81 79 76 74 73 73 72 72 74 75 73 71 71 74 76 76
78 85 91 96 99 100 99 98 97 96 94 91 89 90 92 92 92 92 93 94 93 93 95 97 98 96 93 93 96 98 99 96 91 88 90 90 87 87 89 90 87 85 83 79 78 80 82 84 84 84 81 79 79 77 74 75 77 78 75 72 72 73 76
72 80 87 93 97 99 99 99 98 97 95 93 92 92 92 93 93 94 94 94 93 93 94 95 97 98 97 95 96 97 98 99 100 98 93 93 95 94 93 93 92 91 91 89 84 81 79 80 82 84 84 84 84 83 80 77 77 79 80 78 75 73 74
67 75 82 88 93 96 97 98 98 98 97 96 96 95 94 93 94 94 94 95 94 94 94 94 94 96 97 97 98 99 98 97 101 103 100 97 99 100 100 100 99 97 95 94 93 90 86 84 83 83 84 84 85 86 85 83 81 80 80 82 81 77 74
63 68 76 82 87 90 94 96 97 98 98 97 97 96 96 95 94 94 94 95 95 96 95 95 94 95 96 97 98 100 99 96 96 100 103 103 102 103 104 105 106 106 104 101 100 99 97 94 91 89 88 88 87 88 88 89 87 85 83 83 83 82 78
62 64 70 77 82 84 88 92 95 97 98 97 97 97 97 97 95 94 94 94 95 96 96 97 96 95 96 96 97 99 100 98 95 95 98 102 103 104 105 106 107 109 110 110 108 107 106 104 103 99 97 95 94 93 92 92 93 92 90 87 85 85 84
61 63 66 72 78 81 84 88 91 94 96 97 96 96 97 97 96 95 95 95 95 96 96 97 98 97 97 97 97 98 100 100 100 97 96 98 102 104 105 105 106 106 108 110 111 110 109 109 110 109 106 103 102 100 98 97 97 96 96 94 91 89 88
59 61 63 66 72 77 81 85 88 90 93 95 96 96 97 97 96 96 96 96 96 96 96 97 98 98 99 98 98 98 99 101 102 100 97 95 98 101 103 105 107 107 106 107 108 109 110 110 111 112 111 109 108 106 103 102 101 100 100 100 98 95 93
57 60 60 61 67 72 77 81 84 86 89 92 94 95 96 97 97 97 97 97 97 96 96 97 98 99 100 101 101 100 100 100 102 101 98 96 96 98 99 102 106 109 110 109 108 108 108 108 110 111 112 112 111 109 107 104 103 103 102 103 103 102 99
54 60 60 60 63 68 73 77 80 83 85 89 91 93 95 96 97 98 99 98 98 97 97 98 98 99 99 101 102 102 102 102 102 103 102 100 98 98 99 100 102 105 109 112 113 112 110 109 109 109 110 111 112 112 111 109 108 106 105 105 106 106 106
52 59 61 62 62 64 67 72 76 79 81 84 88 91 93 94 96 97 99 99 99 98 99 99 99 100 99 99 100 102 102 102 103 104 105 104 102 101 101 102 103 104 106 108 111 113 113 113 112 112 111 111 113 114 114 113 112 110 109 108 108 108 108
49 57 61 62 61 61 63 67 71 74 77 80 83 87 90 93 95 96 98 99 100 100 100 100 100 100 101 101 101 101 102 102 102 103 105 106 105 102 101 101 103 104 105 107 109 111 112 113 114 114 114 113 113 114 115 116 115 114 113 111 110 110 110
44 54 60 62 62 61 62 64 67 70 73 76 79 83 86 90 93 95 96 97 98 100 101 102 102 102 102 103 103 103 103 103 103 103 103 105 106 104 102 101 101 101 102 104 106 108 111 113 114 115 115 115 113 113 115 117 118 118 118 117 115 114 113
38 47 56 61 63 62 61 62 64 66 69 72 75 79 82 85 89 92 94 96 97 98 100 101 103 103 103 104 104 106 106 107 106 105 104 105 107 108 106 105 104 103 103 102 102 103 106 109 111 114 115 117 116 116 116 117 118 119 120 120 119 118 117

ECMWFFLT2_250_spd_108.txt.gz
Wind_Speed
87 86 84 85 86 86 86 86 85 85 84 81 80 78 76 76 73 65 60 59 56 51 49 49 49 49 48 45 45 45 43 40 38 36 35 35 33 31 30 29 28 26 24 22 20 19 17 14 11 9 7 6 5 4 3 3 4 4 5 6 6 5 4
85 85 84 85 86 86 86 87 88 87 85 81 79 78 77 77 74 68 65 63 59 54 51 51 51 50 49 47 47 47 46 43 41 39 35 34 33 31 29 30 29 27 26 24 23 21 19 17 14 12 10 8 8 8 7 6 5 4 5 5 6 5 5
86 85 84 84 85 86 87 88 88 86 85 82 80 79 79 79 75 69 67 65 62 58 55 53 53 52 50 49 48 49 48 46 44 40 36 35 35 32 29 30 31 30 28 27 25 23 21 19 17 15 14 12 11 11 11 11 9 8 7 6 5 5 5
87 86 85 84 85 87 87 88 87 85 85 84 83 82 81 80 77 72 68 66 63 61 58 56 55 53 51 50 50 49 49 47 44 40 37 35 35 34 31 31 32 31 29 28 27 26 24 21 19 19 18 16 15 14 14 14 13 12 11 10 9 8 6
86 86 86 85 87 88 88 89 88 86 86 86 85 84 83 82 80 75 71 68 65 62 60 59 58 56 52 51 50 49 49 48 43 39 38 37 37 36 35 34 34 32 30 29 29 28 26 23 21 20 20 18 17 16 15 16 16 15 15 14 14 13 11
85 86 86 85 86 88 88 89 89 88 87 86 86 86 85 84 83 79 75 72 68 64 62 61 61 58 54 51 50 49 50 49 44 38 38 38 38 38 37 37 35 32 30 29 29 30 29 27 23 21 22 21 19 18 18 18 18 18 18 18 17 17 16
86 86 86 84 85 86 87 88 90 90 89 88 88 88 88 86 84 82 78 73 70 67 64 63 63 60 56 53 51 50 51 50 47 43 40 38 37 37 36 36 35 33 31 30 30 31 31 29 27 24 25 24 23 22 22 22 22 22 21 21 20 20 20
88 88 88 87 86 87 88 89 91 91 91 91 90 90 90 88 85 84 80 74 71 70 68 66 64 62 59 56 53 52 52 52 50 48 44 39 36 36 34 33 34 33 33 32 31 32 32 31 30 29 28 27 26 26 25 24 25 25 24 24 24 23 22
91 92 92 90 90 91 91 91 92 91 91 92 92 90 89 88 86 83 80 74 72 72 70 68 66 64 62 60 57 55 53 53 52 50 47 40 36 36 35 34 33 34 35 36 35 35 35 34 33 32 31 29 29 28 27 27 28 27 27 27 28 26 25
92 93 94 93 92 93 95 94 92 91 90 90 91 89 88 89 87 84 81 76 73 73 72 70 67 65 63 61 60 59 56 54 53 51 48 43 38 37 36 36 37 38 38 40 40 39 38 37 36 34 33 32 30 29 30 30 31 30 30 30 31 30 30
93 94 94 94 93 94 96 95 93 92 90 88 89 88 87 89 88 85 83 80 77 74 72 72 69 65 63 63 62 61 59 56 54 53 50 46 41 38 37 37 39 40 40 40 40 40 40 39 37 36 35 33 31 29 30 32 33 33 33 33 33 33 33
94 94 94 94 94 94 94 93 92 92 91 90 90 89 88 87 87 85 84 82 80 77 73 72 71 67 65 64 63 63 61 57 55 55 53 49 44 41 40 39 41 43 44 43 41 40 40 39 38 38 36 32 31 30 30 31 34 35 37 38 38 37 37
96 94 93 94 94 94 93 92 92 92 92 92 91 90 88 87 87 87 86 85 83 80 76 73 71 69 66 65 65 64 63 59 56 55 54 51 47 44 42 42 43 44 45 45 45 42 40 39 39 39 37 34 34 35 33 33 35 36 39 42 43 42 38
96 94 93 94 95 94 93 93 92 93 93 93 92 91 90 89 89 90 90 88 84 82 80 76 72 69 67 66 65 64 64 61 58 57 56 54 51 46 44 45 46 46 46 46 47 45 42 41 41 40 40 39 39 40 39 39 40 40 41 42 43 45 43
97 94 94 96 97 95 95 94 94 94 93 93 92 91 91 91 90 90 90 88 85 82 82 80 76 73 70 68 65 64 63 62 60 60 58 57 54 50 48 48 49 48 47 46 47 46 45 44 44 45 45 44 44 45 45 45 44 44 45 44 42 45 46
98 96 95 97 98 96 95 94 94 94 93 93 93 92 92 91 91 89 88 86 84 81 80 80 80 78 75 73 69 66 65 63 62 62 62 60 57 54 52 50 50 49 48 46 46 46 46 47 47 48 48 47 47 49 49 49 49 47 48 48 44 43 45
98 97 96 98 98 97 96 95 95 94 93 93 93 92 93 92 91 89 87 84 82 80 79 78 79 79 78 75 72 69 68 67 66 65 64 63 61 56 52 50 49 49 50 49 48 48 48 49 50 51 51 50 49 50 51 52 53 52 51 49 46 44 44
96 97 97 98 99 98 97 96 96 95 94 94 93 92 93 93 91 88 87 85 80 77 78 78 76 76 76 74 73 71 70 69 68 68 66 66 64 58 52 51 48 45 48 51 51 51 51 51 53 54 54 52 51 52 53 54 56 56 55 51 49 47 46
95 96 97 98 99 99 97 95 96 96 94 94 93 93 92 92 92 87 85 88 84 77 76 78 77 76 76 76 74 72 72 70 68 68 68 68 68 63 55 53 50 44 44 48 52 54 54 54 54 54 54 55 55 55 53 54 57 59 58 57 54 51 50
94 96 98 99 99 99 98 97 97 97 96 95 94 94 92 92 94 89 81 85 90 86 78 78 80 79 77 76 75 73 73 72 69 68 68 68 71 69 61 55 51 45 44 48 51 53 57 59 58 55 53 54 57 58 56 56 58 60 60 60 59 56 54
92 96 99 100 100 99 100 99 97 96 97 97 95 95 93 92 95 94 84 82 91 95 84 74 77 82 80 78 77 75 74 73 70 69 69 69 72 73 68 61 55 49 49 52 53 53 57 61 64 64 62 59 58 58 58 58 60 61 61 60 59 57 54
87 95 98 100 100 100 100 100 98 95 96 97 96 95 95 93 93 96 93 88 91 97 90 76 74 82 85 84 82 79 76 76 74 71 71 72 74 75 73 68 63 57 54 56 58 57 57 60 66 69 71 69 65 61 60 61 62 63 63 62 60 58 55
81 90 96 99 100 101 101 101 100 97 94 95 96 96 96 95 92 94 97 95 92 95 95 87 80 82 85 87 88 85 81 79 79 77 76 77 78 77 75 71 68 64 61 60 62 64 62 61 64 68 71 73 72 70 68 69 68 67 66 66 66 66 64
74 84 92 97 100 101 101 101 101 100 97 95 94 93 95 97 94 92 94 94 92 91 93 94 91 88 87 88 90 91 89 86 85 85 83 82 83 83 80 75 72 70 67 63 64 69 70 68 67 68 70 72 75 75 74 73 72 72 71 70 70 70 71
69 78 87 94 98 100 101 100 100 101 100 98 94 91 92 94 95 93 93 93 93 92 90 93 97 97 94 93 92 93 93 92 91 91 89 88 89 88 85 81 78 76 71 66 66 70 74 75 74 74 74 75 76 77 77 75 73 73 73 73 73 73 73
65 72 80 89 96 98 100 100 100 101 101 100 98 94 91 92 93 91 88 90 95 95 90 92 98 100 99 98 99 98 97 96 95 93 92 92 93 92 89 87 85 82 77 74 71 71 76 80 81 79 80 81 80 80 79 77 75 74 75 75 75 76 77
61 67 73 82 90 96 98 99 100 101 100 99 99 97 94 92 92 87 80 81 91 96 94 93 98 101 101 101 101 103 103 101 100 97 95 94 96 96 94 93 91 89 85 81 77 72 74 82 86 85 84 84 84 85 83 81 78 77 78 79 80 80 81
56 62 68 75 83 91 95 98 99 100 100 99 99 98 97 95 94 92 86 83 89 95 97 97 98 100 102 102 101 102 104 105 104 103 100 99 100 101 99 96 95 94 92 89 84 77 73 77 84 89 90 88 87 87 87 87 85 82 80 81 83 84 84
51 58 64 68 75 84 91 95 98 99 100 100 100 100 100 97 96 96 95 93 93 95 97 97 96 96 99 101 100 99 101 104 104 105 104 103 102 104 104 101 98 98 98 97 94 88 81 77 78 83 89 93 93 92 90 90 89 88 86 83 83 83 84
46 54 61 64 68 76 85 91 95 98 99 100 100 100 100 100 98 98 98 97 97 97 97 97 95 94 95 98 99 98 98 99 100 102 104 103 101 103 105 105 102 100 100 102 102 100 95 89 84 82 83 88 94 97 97 94 92 91 90 88 86 84 84
41 49 58 63 64 69 77 84 91 95 97 99 100 100 100 100 100 100 100 99 98 98 97 96 96 95 95 97 98 98 97 96 96 97 100 101 100 100 102 104 104 101 99 100 103 105 105 102 98 93 89 87 89 94 99 101 99 96 94 92 91 89 88
38 46 55 63 65 66 71 77 85 90 94 97 99 100 100 101 100 100 101 101 100 99 97 96 95 96 96 98 100 100 98 96 94 94 95 97 99 100 101 103 104 104 102 100 100 102 105 107 107 105 102 98 94 93 95 99 103 103 100 97 96 95 95
35 43 52 60 63 64 67 72 78 84 89 93 97 98 99 100 101 101 101 102 101 100 99 98 97 97 97 98 101 103 102 100 98 97 97 97 98 99 101 102 104 106 108 107 105 103 103 105 108 109 110 109 107 103 100 99 101 103 104 103 102 101 101
31 40 48 56 60 62 65 68 73 79 83 87 91 95 97 99 100 100 101 101 102 101 101 100 100 100 100 100 100 102 105 106 105 104 102 102 101 101 101 102 104 105 108 110 111 111 110 109 108 109 109 111 112 112 111 108 105 105 106 106 106 106 106
27 35 43 51 57 62 64 64 67 72 77 80 84 89 93 96 98 99 100 101 101 102 102 102 101 101 101 102 101 101 103 107 109 108 107 107 106 106 106 106 106 107 108 109 111 113 114 115 114 113 112 112 112 113 114 115 114 113 112 111 111 110 109
22 29 38 47 54 59 62 62 62 64 69 74 78 83 87 91 94 97 99 100 100 101 102 103 103 102 102 102 102 101 101 103 105 108 109 109 109 108 108 109 109 109 110 111 112 113 114 116 116 117 117 116 115 115 115 116 117 118 118 119 118 117 115
17 25 33 42 50 56 60 60 59 59 63 68 73 77 82 86 89 92 95 97 99 100 101 102 103 104 104 104 105 104 103 103 104 105 107 108 109 109 109 110 110 111 112 112 113 114 115 116 117 118 119 119 119 119 118 118 119 119 120 122 123 123 123

ECMWFFLT2_250_spd_111.txt.gz
Wind_Speed
87 87 86 86 87 86 84 84 85 84 84 83 81 79 77 72 68 68 66 62 59 57 54 53 56 56 52 49 45 42 42 41 39 39 38 37 36 35 34 34 32 29 26 24 21 19 16 14 12 10 9 8 6 4 2 2 3 4 4 5 6 6 7
88 87 86 87 88 87 86 86 87 85 84 84 83 80 79 76 71 70 69 65 60 58 55 55 56 55 53 50 48 46 46 43 42 41 40 38 37 35 34 34 34 31 28 26 24 22 20 17 15 14 13 11 10 8 6 3 2 2 3 5 6 6 6
88 87 87 89 90 88 87 87 86 85 85 85 84 83 81 79 75 70 68 66 63 60 58 59 59 56 53 51 49 48 48 46 44 43 41 39 38 36 34 33 34 32 30 29 27 25 23 22 20 18 17 14 12 11 9 8 6 3 2 2 4 5 6
89 88 88 90 91 89 87 87 85 85 86 87 86 85 82 80 77 72 67 66 65 62 60 61 62 58 54 52 50 49 48 47 46 44 41 38 38 38 36 34 35 34 33 31 30 28 26 25 24 22 20 18 15 13 12 11 9 8 6 5 3 2 2
91 90 89 90 91 90 88 87 86 86 87 87 87 85 82 81 80 75 70 67 66 64 62 62 62 58 55 53 52 51 49 47 46 44 41 38 38 39 38 37 37 37 36 34 31 30 29 27 26 25 22 20 18 15 13 12 11 11 10 9 8 7 6
93 91 91 91 91 90 89 88 87 87 87 86 85 84 83 82 81 78 73 69 67 65 64 64 62 59 57 56 54 52 50 49 47 46 43 42 41 41 40 39 39 37 35 35 33 31 30 29 28 27 25 23 21 19 17 16 15 14 14 13 12 12 11
94 92 91 91 91 91 89 87 86 86 85 83 82 83 83 82 80 77 73 70 69 67 66 66 64 61 59 59 57 55 53 51 51 49 46 45 44 43 41 40 39 39 37 37 36 34 32 31 30 29 27 25 24 22 21 20 19 17 17 16 16 15 14
94 93 91 91 92 91 88 86 85 85 84 82 81 82 82 81 80 76 73 72 71 70 69 68 67 64 62 61 60 57 55 54 53 52 48 46 45 43 41 38 39 41 40 39 38 37 35 34 32 30 28 27 26 25 24 23 21 20 20 19 19 18 17
95 94 93 92 92 91 89 87 87 86 84 82 81 82 82 81 80 77 75 74 72 70 70 69 69 67 64 63 61 58 58 57 56 54 51 49 47 45 42 40 40 41 41 40 40 39 37 35 33 32 31 29 27 26 26 25 24 23 23 22 22 21 21
94 94 94 93 92 91 90 89 88 87 85 83 82 83 83 82 82 80 78 78 74 71 70 69 69 69 65 63 62 60 60 60 58 56 53 51 49 46 45 44 43 42 41 40 40 38 37 35 32 32 32 31 29 28 28 28 29 28 26 25 25 25 25
93 93 93 92 91 91 90 89 89 88 87 85 84 84 83 83 83 82 81 80 75 71 71 70 69 69 67 64 63 62 62 61 60 58 56 54 52 48 47 46 45 44 42 41 40 39 38 37 34 32 32 31 31 31 32 33 33 31 29 29 29 29 28
92 93 92 91 90 90 90 89 89 88 88 87 85 84 84 84 83 83 82 80 77 72 71 71 71 71 69 65 63 62 62 62 61 60 58 56 55 51 48 46 45 45 44 43 42 41 41 40 37 35 34 33 33 35 36 36 34 31 32 32 32 32 31
90 93 92 91 90 90 91 91 89 88 87 87 85 84 85 84 85 86 83 81 79 74 70 71 72 73 73 69 65 63 62 61 60 60 59 58 57 54 49 45 44 45 46 45 44 43 43 41 39 37 36 35 35 36 37 37 35 34 35 36 35 34 33
87 93 93 92 91 91 91 91 90 88 87 87 86 85 85 86 87 87 85 83 81 77 72 69 70 74 76 73 70 66 63 61 60 60 60 59 58 57 52 48 45 44 46 46 45 44 44 42 40 39 39 38 37 38 38 37 36 36 37 38 38 35 34
84 91 94 93 92 92 92 91 90 89 88 87 87 85 86 87 87 87 87 86 84 81 76 70 67 71 75 75 73 69 66 63 61 60 61 60 60 58 55 52 48 45 46 45 44 44 43 42 41 41 42 41 40 40 39 37 37 36 37 40 41 39 37
80 89 94 94 93 93 93 93 92 90 89 88 88 87 87 87 86 85 86 86 85 84 81 75 69 69 73 76 73 71 68 65 62 61 61 62 62 60 58 56 52 48 46 45 44 45 44 43 42 43 44 44 43 42 41 40 40 39 39 41 42 42 42
75 86 93 95 95 95 94 94 93 92 91 90 89 88 87 86 86 86 85 83 83 84 84 81 75 69 71 76 76 73 70 67 64 63 62 62 63 62 60 58 56 52 49 46 46 46 46 44 43 43 43 43 42 42 42 41 42 42 43 45 46 48 49
69 82 90 95 96 96 95 95 95 94 92 92 91 89 87 86 86 85 82 79 79 81 82 83 80 73 71 75 78 77 73 70 67 65 65 64 64 63 62 59 57 56 53 50 49 47 46 45 43 43 43 43 43 43 42 42 43 44 47 49 51 53 54
62 77 88 93 95 95 95 95 96 95 93 93 92 90 88 87 85 84 81 76 74 76 79 80 79 76 72 73 78 80 77 73 70 68 68 67 65 63 62 60 60 59 56 54 53 49 46 46 45 45 44 45 46 46 44 45 46 48 52 54 54 55 55
56 70 83 91 94 95 95 96 96 96 95 94 93 91 89 88 86 84 82 79 77 78 79 79 79 79 75 73 77 81 81 77 73 71 70 69 68 65 62 62 63 63 59 57 55 52 48 47 47 47 46 47 49 48 47 48 49 52 56 56 56 57 56
51 61 75 86 92 95 96 97 97 97 97 96 94 93 90 89 88 87 85 85 87 86 84 82 82 83 80 75 76 81 82 80 77 74 72 71 70 69 67 66 66 65 62 60 58 56 55 53 51 51 51 52 52 50 50 51 52 54 56 56 55 58 59
48 55 65 78 88 93 97 98 98 98 98 97 96 94 92 90 90 90 90 90 90 89 88 87 85 85 84 80 77 79 82 82 81 78 76 73 71 70 70 69 68 67 66 64 62 61 61 60 58 56 56 56 56 55 54 55 55 55 57 58 57 57 58
44 53 60 70 81 90 96 99 99 99 99 98 96 95 94 93 93 93 94 94 87 83 87 91 88 85 85 85 81 79 81 84 84 82 80 76 72 70 71 71 70 70 69 68 66 64 65 66 65 63 62 59 58 59 60 61 61 60 59 60 61 59 57
40 50 56 64 75 86 94 99 100 100 100 98 97 96 95 95 95 94 97 98 91 82 85 93 93 87 86 87 85 82 81 83 85 84 83 80 75 72 73 74 74 74 74 72 69 67 67 68 67 67 68 67 63 62 64 66 68 68 66 64 64 63 60
34 45 54 61 70 81 91 98 100 101 100 99 98 97 97 97 97 96 97 100 99 91 88 94 97 93 89 89 89 86 83 83 85 86 85 84 80 77 77 78 79 78 78 76 73 69 69 70 69 67 69 71 71 68 68 70 71 72 73 72 70 69 66
30 40 49 58 66 76 86 95 100 101 101 100 99 99 99 98 98 98 98 100 103 98 92 95 100 98 92 90 91 90 88 86 86 88 88 87 85 83 82 81 81 81 80 79 77 73 70 71 72 70 68 70 74 74 74 74 75 75 75 76 75 74 72
27 35 45 54 63 72 81 91 98 101 102 102 101 101 100 99 99 99 99 99 102 102 97 95 99 101 98 94 92 93 92 90 88 89 90 91 90 89 87 85 83 83 83 82 81 78 74 73 74 74 72 70 72 76 77 77 79 80 80 79 79 78 77
25 31 41 51 60 68 76 86 94 99 101 102 102 101 100 100 100 100 100 99 100 102 100 96 96 100 101 98 94 93 94 94 92 90 90 91 93 94 92 90 87 86 86 85 85 83 80 77 75 76 75 73 72 74 76 78 80 82 84 85 84 83 82
22 27 36 46 55 64 71 80 88 95 99 100 101 101 100 100 100 100 100 100 100 100 101 98 95 97 100 100 97 94 93 94 94 93 91 91 93 94 95 94 93 92 91 90 90 89 87 84 81 79 78 77 75 75 76 76 78 81 84 86 88 87 87
20 24 31 39 50 59 65 73 80 88 94 97 99 101 101 100 101 100 100 101 100 100 100 99 96 96 99 102 100 97 94 93 93 94 93 93 94 94 95 96 95 95 95 94 94 94 94 93 90 86 83 81 80 79 79 78 77 78 81 84 87 89 89
19 21 27 34 43 51 58 64 68 77 88 95 98 101 101 100 100 101 100 100 101 101 101 100 98 97 99 102 103 102 98 96 96 95 94 95 97 97 97 97 97 97 98 98 98 99 99 99 98 95 91 87 85 84 83 82 80 80 80 81 84 86 88
16 17 23 30 37 44 50 51 48 57 76 90 95 99 101 100 101 103 102 101 101 102 102 102 101 100 99 101 103 104 102 100 100 100 98 97 98 100 101 100 100 100 100 100 101 102 102 102 103 102 99 95 91 89 88 87 86 85 84 83 84 85 87
15 15 20 26 32 40 46 45 39 45 65 83 91 97 101 101 102 104 103 102 101 102 103 103 103 102 101 101 102 104 104 102 101 103 104 101 99 100 103 104 104 103 102 102 103 104 104 104 105 106 105 102 98 96 94 93 92 90 89 87 86 86 87
15 14 18 25 32 40 47 51 47 47 58 71 83 91 96 100 102 103 103 102 100 100 102 104 104 104 103 102 103 104 106 105 103 103 105 106 104 102 102 104 106 106 106 105 105 105 106 107 107 107 108 108 106 103 101 100 98 97 95 93 91 91 90
16 14 19 25 33 43 52 56 54 51 53 62 73 83 90 97 101 103 103 102 100 99 100 102 104 105 105 104 104 104 105 107 107 106 105 107 109 108 106 105 106 107 108 108 108 108 108 109 110 109 110 111 111 110 108 106 105 104 102 99 98 96 95
16 15 19 25 32 44 55 59 58 56 56 59 68 78 87 93 98 100 102 102 102 101 99 99 101 104 105 106 106 105 104 105 107 108 108 107 108 110 111 111 110 110 110 110 111 112 112 112 112 113 112 113 114 114 113 112 111 110 109 107 105 104 102
15 15 17 23 30 41 53 60 61 60 59 61 66 74 82 88 93 98 100 100 101 102 101 100 100 100 102 104 105 106 105 104 104 106 107 108 108 109 110 112 113 114 115 114 114 114 115 115 115 116 116 117 117 117 118 118 117 115 114 114 112 111 110

ECMWFFLT2_250_spd_114.txt.gz
Wind_Speed
75 87 93 92 91 90 88 85 83 80 79 79 79 79 79 78 75 74 73 70 68 66 62 61 59 56 53 50 46 43 41 40 39 38 36 36 35 34 33 32 29 26 25 23 21 20 18 16 14 12 10 9 7 7 7 9 10 11 11 11 10 10 10
73 84 93 95 94 92 89 88 85 81 78 78 79 79 80 80 77 75 75 72 69 65 62 60 60 58 55 51 48 45 43 42 41 40 38 37 37 36 34 34 31 29 27 26 24 23 21 19 17 15 14 11 9 7 6 7 9 10 11 11 11 11 10
72 83 93 96 95 92 91 89 85 80 78 79 80 81 81 80 78 76 75 74 70 65 62 60 60 59 56 52 49 47 45 44 44 42 39 38 38 37 34 33 33 31 30 29 27 25 23 21 20 18 16 14 12 9 7 6 6 8 10 11 11 11 12
69 82 91 96 96 93 92 90 87 84 84 84 82 81 81 80 79 77 76 75 72 67 64 62 61 60 57 54 51 49 48 48 46 43 41 39 39 38 35 34 34 33 32 30 28 26 25 23 22 20 18 16 14 12 10 7 6 5 6 7 8 9 9
65 78 89 95 96 95 93 91 90 89 89 87 84 81 80 80 80 79 77 77 75 71 67 65 62 60 59 57 53 52 51 50 48 46 43 40 40 40 37 35 35 34 33 31 29 28 27 25 24 23 20 17 15 13 11 10 8 7 5 5 5 4 4
60 73 86 95 97 96 94 93 92 90 89 85 82 80 79 79 80 79 77 77 77 75 72 68 63 60 60 59 56 54 54 53 51 48 45 42 42 41 39 38 37 36 35 34 32 30 29 28 27 25 22 19 17 15 14 12 11 10 8 7 7 6 5
56 69 84 94 98 97 95 94 92 90 87 83 81 80 79 78 78 78 77 76 76 76 75 71 66 61 61 61 59 57 56 54 53 52 49 46 44 42 41 40 39 39 38 37 36 34 32 32 30 28 26 24 22 19 18 16 14 12 11 10 9 8 8
53 66 81 93 98 98 96 94 92 89 87 84 82 80 79 78 78 78 77 75 74 73 72 70 67 63 64 65 63 60 57 55 55 55 52 49 47 45 44 44 43 42 40 38 37 36 34 33 32 31 29 27 26 24 23 21 18 16 16 14 13 12 11
50 62 78 91 97 98 96 94 91 89 87 85 83 81 79 78 78 79 78 76 74 71 69 69 67 64 65 69 67 62 58 55 54 55 54 51 50 50 48 47 46 45 43 40 39 37 36 35 35 33 31 30 28 27 26 24 23 21 20 18 17 16 15
47 59 73 88 96 98 96 94 92 89 87 85 84 82 80 79 79 80 80 78 76 73 69 69 68 64 64 70 68 60 55 54 51 53 56 55 53 53 52 50 48 47 44 41 39 39 38 38 37 36 34 33 31 30 28 26 25 23 21 20 19 18 18
43 54 68 83 93 96 95 94 91 88 87 86 84 83 81 80 80 81 81 80 79 76 70 68 68 65 63 69 68 56 49 52 53 54 57 58 56 55 54 52 49 48 45 42 40 41 40 40 40 39 37 35 34 32 30 28 27 25 24 23 22 22 21
40 51 63 78 90 95 95 93 91 88 87 87 86 84 83 81 82 82 82 81 81 78 72 68 67 65 65 70 70 60 49 47 51 54 56 58 59 57 55 54 52 49 46 44 42 42 42 42 42 41 40 38 36 35 33 30 29 28 27 26 26 25 24
37 48 60 73 85 93 94 93 92 89 88 88 87 86 84 83 83 84 83 83 82 78 74 72 69 67 67 70 73 70 61 50 46 49 52 54 58 60 58 55 53 52 49 46 44 43 43 44 44 43 42 40 38 37 35 33 31 30 29 29 28 28 27
35 45 57 70 82 90 93 93 92 90 89 89 88 87 85 84 84 84 84 84 83 79 75 74 72 69 70 72 73 75 73 63 54 49 46 47 50 56 61 59 56 54 52 49 47 45 43 43 44 44 43 42 41 39 36 35 34 33 32 32 31 31 31
33 43 53 66 79 88 92 93 91 90 89 89 89 88 86 85 84 84 85 85 85 81 76 75 74 71 71 73 75 76 75 72 67 58 50 47 47 48 55 61 59 55 54 51 49 47 45 43 43 44 44 43 42 39 37 36 36 36 35 35 34 34 34
30 41 51 63 76 85 91 92 91 90 89 90 90 89 87 85 85 85 86 86 86 84 77 73 73 73 73 74 75 76 75 73 74 70 61 56 52 46 48 57 61 57 54 53 50 48 47 45 44 44 44 44 42 41 39 39 38 38 38 38 37 37 37
27 37 49 60 73 83 89 91 91 90 90 90 90 89 88 86 85 86 86 86 87 86 80 73 71 71 72 75 76 76 76 74 75 76 71 64 58 50 46 52 59 58 54 53 51 48 46 45 43 43 44 43 42 41 40 40 40 40 41 42 41 41 40
23 33 45 57 70 81 88 91 92 91 91 91 91 90 89 87 86 86 87 86 87 87 82 73 67 65 66 73 78 77 77 77 76 75 74 71 66 59 52 52 57 59 56 53 51 49 46 44 44 43 42 41 40 39 38 38 40 41 43 44 44 44 43
21 28 40 53 66 78 88 92 93 92 92 92 92 92 90 89 87 87 87 86 87 88 84 73 65 62 60 65 74 79 80 80 79 76 74 72 71 68 62 59 59 59 57 54 52 50 47 45 43 42 40 39 39 38 38 38 39 40 42 42 43 44 43
19 25 33 47 62 75 85 92 93 93 93 93 93 93 92 91 89 87 87 87 87 88 85 76 68 64 60 61 68 77 82 83 82 80 77 73 71 69 67 64 62 61 58 56 54 51 49 47 45 40 37 37 37 37 37 38 36 37 40 41 40 40 42
17 23 30 41 57 70 81 90 93 94 94 94 94 94 94 92 90 88 87 87 88 89 87 81 73 67 63 63 67 74 82 85 84 82 81 77 72 69 67 64 63 62 60 58 56 53 50 49 48 43 39 38 40 39 38 39 37 35 38 42 43 43 44
15 20 28 37 50 65 78 87 93 95 95 95 95 95 94 93 91 89 88 89 89 91 91 86 78 74 72 70 70 73 78 85 87 84 82 80 75 70 66 62 61 62 62 61 60 57 53 52 52 49 45 44 46 45 45 45 44 41 41 42 44 46 47
13 16 25 34 44 59 73 84 91 95 96 96 95 95 94 93 91 89 89 90 90 92 94 92 85 82 82 77 74 74 75 79 86 87 83 81 78 73 68 64 61 61 61 61 62 62 59 57 57 54 51 50 51 51 52 52 52 52 52 50 49 51 52
12 14 21 31 40 51 66 80 89 95 97 97 96 95 94 94 93 91 91 92 92 93 96 97 93 89 89 83 78 78 77 74 80 86 85 83 81 77 73 69 65 62 58 57 61 65 65 63 62 59 55 54 55 56 57 57 57 58 60 60 58 58 59
14 14 17 27 37 45 58 73 86 94 97 97 96 96 95 95 94 93 92 92 94 95 97 100 98 94 93 90 82 80 80 74 74 81 85 85 84 81 76 72 69 66 61 60 63 66 66 66 65 64 61 59 60 62 62 63 63 63 63 64 64 63 63
17 16 17 23 34 42 52 66 81 92 96 97 98 97 97 97 95 95 94 93 94 96 97 101 102 99 97 96 88 82 81 77 72 75 82 85 85 84 79 75 72 70 68 68 69 68 67 68 68 68 67 67 66 67 67 67 68 68 68 67 67 66 65
20 19 18 21 31 40 47 58 73 87 94 98 100 99 97 98 97 95 95 93 94 96 97 101 104 103 101 101 96 87 83 80 74 71 76 82 85 85 82 79 76 73 72 72 73 73 72 71 71 71 71 72 72 71 71 71 71 71 71 72 72 72 71
22 21 20 20 27 37 44 52 64 79 91 98 100 100 98 98 97 96 95 95 94 96 97 99 103 105 104 104 102 96 89 84 79 73 72 76 82 85 84 82 80 78 76 73 73 75 77 76 74 72 73 75 77 77 76 75 75 74 74 75 76 77 77
23 22 22 20 25 34 42 48 57 71 86 96 100 100 99 99 98 96 95 95 95 96 97 98 100 103 104 104 104 102 98 92 88 82 74 72 77 82 85 86 84 83 82 80 77 77 78 79 78 76 75 76 79 81 81 80 79 78 78 78 77 78 78
24 23 23 21 23 30 38 46 53 63 77 90 97 100 100 100 99 97 96 96 95 95 96 98 99 100 101 102 101 101 102 100 96 92 86 79 75 78 84 87 88 87 87 86 85 82 80 81 81 81 79 79 80 83 84 84 83 82 83 82 81 80 80
25 25 24 21 21 28 36 43 49 57 68 81 91 98 99 99 98 97 97 95 95 95 96 97 98 98 99 100 99 98 99 99 97 96 94 90 84 79 81 86 89 91 90 90 90 88 86 85 84 84 83 82 82 84 86 87 87 86 86 86 86 85 84
25 26 26 22 21 26 34 41 46 52 60 70 81 88 92 96 97 97 98 96 92 93 96 97 98 98 98 99 100 98 98 97 96 93 94 95 94 88 83 84 87 91 93 94 93 92 90 88 88 87 87 86 86 86 88 90 91 91 91 90 90 89 89
25 27 26 22 20 25 32 39 44 49 53 61 69 71 73 83 86 85 91 97 95 94 98 99 99 99 98 99 100 99 98 98 96 94 92 93 96 96 92 87 86 89 93 95 96 95 94 92 91 90 89 89 89 89 90 91 93 94 95 95 94 93 93
25 26 26 21 18 23 31 37 42 47 48 54 60 58 58 70 73 66 70 86 96 99 100 99 98 99 99 99 100 100 101 100 98 96 95 94 95 97 97 95 92 90 91 94 96 97 97 97 96 94 93 92 93 93 94 94 95 96 97 98 99 98 97
24 25 25 19 16 21 28 35 41 45 46 50 55 55 53 61 68 61 53 59 76 92 100 99 98 100 100 100 100 101 102 103 102 100 99 98 97 97 98 99 98 96 94 94 96 98 98 98 99 99 98 97 97 97 98 99 99 99 99 100 100 101 101
23 24 23 17 14 18 27 35 40 45 49 52 55 56 54 56 64 67 60 49 54 73 90 98 100 101 101 101 102 101 102 104 105 104 103 102 101 101 100 100 101 101 100 98 97 98 99 100 101 102 103 103 102 102 102 103 103 103 102 102 102 102 102
21 22 22 16 12 17 28 38 43 48 55 56 55 56 58 58 62 70 69 59 51 59 75 90 98 101 101 102 103 103 103 104 105 107 106 104 104 105 105 104 103 102 103 103 102 101 100 100 101 102 104 106 107 107 107 107 107 107 107 106 106 105 105

ECMWFFLT2_250_spd_117.txt.gz
Wind_Speed
57 65 71 74 76 76 77 79 81 81 81 78 75 74 75 75 76 76 75 72 67 63 63 62 61 61 57 55 56 53 49 47 45 43 40 37 36 35 34 31 28 27 25 23 22 20 18 16 16 16 14 12 12 13 14 13 13 12 11 11 10 9 10
53 60 67 72 76 78 79 81 83 83 82 79 75 74 75 76 77 78 77 74 70 67 66 65 63 62 61 60 59 54 50 47 46 45 42 39 39 38 37 34 30 29 27 25 24 23 21 18 17 17 15 14 13 13 14 14 13 12 11 10 9 9 10
49 56 63 68 74 79 81 83 84 83 82 80 78 76 76 77 78 79 79 77 73 69 69 68 65 64 63 62 60 56 52 49 48 47 45 42 41 40 39 35 33 32 31 29 28 26 24 22 20 18 16 15 14 13 14 14 14 13 12 12 11 10 11
43 52 60 66 71 78 81 83 84 84 83 84 84 81 80 80 81 81 81 81 77 72 70 70 68 66 64 62 58 56 54 52 50 48 46 44 43 42 41 38 36 35 33 31 29 27 26 25 23 21 18 16 15 15 14 15 15 15 14 14 14 13 13
38 47 56 65 72 77 81 83 85 87 87 88 88 87 85 84 84 84 84 84 82 75 70 71 71 67 65 61 58 57 55 53 52 50 48 47 45 44 43 40 38 36 34 32 30 28 27 26 25 24 22 20 18 17 16 16 16 16 16 16 15 14 13
32 41 50 61 70 76 81 84 87 91 91 91 91 91 89 87 86 86 86 86 86 80 71 71 72 69 65 61 59 58 57 55 54 52 50 48 47 46 44 42 40 38 35 33 31 30 29 28 28 27 25 23 21 20 18 17 17 17 17 16 16 14 12
28 36 45 56 66 74 80 85 89 94 95 93 94 93 91 88 86 87 87 87 88 85 75 70 72 70 66 63 61 59 58 56 55 54 51 49 49 48 46 43 41 39 37 35 34 33 31 31 31 29 27 26 24 23 21 20 19 19 19 18 17 15 14
25 32 41 50 62 71 78 85 91 96 96 95 96 95 91 88 87 87 87 86 88 88 80 72 72 72 68 65 62 60 59 57 56 54 51 50 50 49 47 45 42 41 39 37 36 36 35 34 32 30 29 27 26 25 24 23 22 21 20 19 18 17 15
21 29 37 45 56 66 75 82 90 96 97 96 97 96 92 89 87 86 87 87 88 89 84 76 73 73 70 66 63 61 60 59 57 55 53 52 52 50 48 47 44 42 42 41 40 39 38 36 34 33 31 29 28 27 26 24 23 22 21 20 18 17 16
18 25 35 42 50 61 70 78 87 96 97 96 97 95 92 89 88 87 88 88 87 88 85 79 75 75 72 67 64 62 61 60 58 56 55 55 54 52 51 49 45 43 44 44 43 42 40 38 37 35 34 32 31 30 29 27 25 24 23 22 19 18 17
16 21 31 40 46 54 65 74 85 94 98 97 96 95 93 90 88 88 88 87 86 85 84 81 77 75 73 67 64 64 63 61 60 57 56 57 56 55 54 50 47 45 44 45 44 43 42 40 39 38 37 35 34 34 32 30 29 28 26 25 22 21 20
15 18 26 37 44 49 58 70 82 93 98 98 97 96 94 91 89 88 87 86 85 84 84 83 78 75 73 68 64 65 66 64 62 59 57 57 58 58 55 53 51 48 46 46 46 45 44 43 41 41 40 39 37 37 35 34 32 31 29 28 26 24 23
14 16 21 32 42 48 54 65 79 91 98 98 97 97 95 92 90 89 88 86 85 85 85 85 81 75 73 70 66 67 68 67 64 60 56 56 58 59 58 56 54 52 49 48 47 47 46 45 44 43 42 42 40 39 38 36 35 34 32 31 29 28 27
14 14 19 27 38 48 54 63 75 89 97 98 97 97 95 94 92 89 88 87 86 86 86 87 85 78 76 73 68 66 69 68 66 63 57 54 55 57 59 59 56 54 52 50 49 49 48 47 46 45 44 43 42 41 40 38 37 36 35 34 33 32 30
16 14 17 23 33 44 54 62 73 86 96 98 97 96 95 94 92 90 88 87 87 86 86 89 88 81 79 77 69 65 69 69 67 66 61 56 54 54 57 60 60 58 56 55 53 52 51 50 49 48 47 45 44 43 42 41 40 39 37 37 36 34 33
19 15 15 20 28 39 50 61 72 83 94 98 97 96 95 95 93 90 88 87 87 87 87 89 89 83 80 78 70 66 70 70 68 68 64 59 55 54 56 60 63 62 60 58 57 55 54 52 51 50 49 47 46 45 44 43 42 41 40 39 37 36 35
21 17 14 18 25 34 46 59 71 82 92 98 98 97 95 95 93 90 88 87 87 87 87 89 88 80 75 75 70 67 71 71 68 67 67 64 60 57 58 61 62 62 61 60 59 58 56 55 53 52 51 49 48 46 46 45 44 43 42 40 39 39 38
22 19 15 15 22 31 41 55 69 82 91 97 98 98 95 95 93 90 88 87 87 87 87 88 87 76 69 73 72 68 72 73 68 63 62 65 64 60 60 62 63 62 61 61 61 61 59 57 55 53 52 51 49 47 46 46 45 44 43 42 41 41 39
22 21 17 14 20 28 37 48 63 79 90 96 98 98 96 94 93 91 89 87 87 87 87 89 88 78 69 72 73 68 70 74 71 64 60 61 63 60 58 60 64 65 63 61 62 62 60 58 57 55 53 51 50 48 47 46 46 45 44 43 42 41 40
22 21 19 15 16 25 33 43 56 74 88 95 98 98 96 95 93 91 89 88 88 88 88 89 90 81 71 72 72 67 68 73 72 69 65 61 58 57 56 55 57 62 64 63 62 62 62 61 58 56 55 54 51 50 48 47 47 46 44 43 41 41 43
21 21 20 16 15 21 30 39 50 66 83 94 98 98 96 95 94 92 90 88 88 89 88 89 90 82 72 71 72 67 67 74 72 66 66 66 62 58 56 53 51 54 59 61 61 61 62 62 61 59 57 55 53 51 49 48 46 45 43 43 42 42 44
21 21 21 18 15 17 25 35 45 58 76 90 97 98 96 95 95 93 91 89 88 89 89 89 91 85 73 71 74 69 67 75 74 61 57 64 68 67 64 60 54 53 54 55 56 57 58 59 61 61 59 56 55 53 50 48 47 45 44 44 44 44 43
20 20 21 19 16 15 20 30 41 52 68 85 95 98 97 96 95 94 93 91 89 90 90 90 92 89 77 72 75 72 68 75 79 67 56 59 67 74 75 70 64 61 58 57 56 55 54 53 56 60 60 56 54 53 51 49 48 47 47 47 46 46 46
19 19 20 20 18 15 16 25 36 46 60 78 91 96 97 97 97 95 94 92 90 90 90 91 93 92 82 74 76 76 72 76 82 79 69 64 65 74 79 78 75 71 67 64 61 57 53 50 51 57 60 57 54 53 52 51 49 49 49 47 44 42 45
19 19 19 20 20 18 15 20 31 42 54 69 85 94 98 98 98 97 94 93 92 91 91 91 94 94 87 78 77 79 76 78 84 85 79 71 66 70 77 79 80 79 74 69 66 62 58 53 51 54 58 58 56 54 53 53 53 52 51 49 46 44 45
20 19 19 19 20 20 18 18 25 37 49 62 79 92 98 99 99 97 95 93 92 92 92 91 93 96 92 83 79 80 80 79 83 85 83 78 73 72 74 77 79 81 80 76 72 68 64 59 55 56 59 60 59 57 55 54 57 57 55 53 52 52 52
21 20 20 19 19 20 20 19 22 32 44 57 71 86 95 99 99 98 96 95 93 93 92 92 94 97 97 89 81 81 83 81 81 80 79 81 81 78 76 77 80 81 82 82 79 74 71 67 62 60 61 62 62 60 58 58 58 59 59 58 58 59 61
23 22 21 21 19 19 21 21 22 28 39 52 64 79 91 97 99 98 97 96 95 94 93 94 95 97 100 96 87 84 85 84 85 84 77 74 81 83 79 79 82 84 84 84 81 78 76 74 71 68 67 66 65 64 63 63 62 62 61 61 60 61 64
24 23 22 22 21 20 21 23 25 27 35 47 59 72 85 95 98 99 98 96 95 95 94 94 96 97 101 101 95 89 87 86 90 91 79 65 70 79 79 78 81 85 86 86 84 81 79 77 76 75 72 69 68 69 68 68 68 68 66 64 62 62 64
26 25 24 23 23 23 23 24 26 29 33 42 54 66 79 91 97 98 98 96 95 95 94 95 96 97 99 103 101 96 92 89 90 93 85 68 63 69 75 76 77 80 85 87 87 85 83 80 78 77 75 72 70 71 73 73 73 73 73 71 68 66 66
27 26 26 25 25 25 26 26 27 30 33 39 50 62 73 85 94 97 97 95 94 94 94 94 96 98 98 101 104 102 99 94 90 91 92 83 70 66 71 75 76 77 80 85 88 89 87 85 82 79 76 75 74 73 74 76 77 77 78 77 75 73 71
28 27 27 27 26 26 27 27 28 30 33 37 47 57 68 79 88 93 94 92 88 89 92 93 94 97 98 99 102 104 104 101 95 91 93 93 82 71 70 74 76 76 77 79 84 89 91 89 87 84 81 79 79 78 77 77 79 80 81 82 81 80 79
28 28 28 27 27 27 28 28 28 28 31 35 43 53 62 72 82 88 92 89 82 81 88 93 93 95 97 97 100 103 104 105 102 96 94 95 91 80 72 72 74 77 78 77 78 83 89 91 90 88 86 84 83 83 82 81 80 81 84 86 86 85 84
29 29 28 28 27 27 27 28 28 27 28 33 40 48 56 65 76 81 83 83 81 80 86 92 93 94 97 97 98 101 104 106 107 105 99 96 96 92 83 76 74 75 78 80 79 80 84 88 90 90 90 88 86 85 86 86 85 84 84 86 88 90 90
29 29 29 27 26 27 27 28 26 25 26 31 38 45 51 60 72 75 71 72 76 79 85 91 92 92 96 98 97 99 103 105 108 110 107 102 99 99 95 88 82 79 78 80 81 81 82 85 89 91 92 91 89 86 85 86 88 90 90 89 89 90 92
30 29 28 27 26 26 27 27 24 22 25 30 36 44 51 58 68 74 71 67 65 66 75 86 90 89 93 97 99 99 101 104 106 110 112 110 105 102 101 98 94 90 85 83 82 82 82 84 87 90 93 94 94 91 88 86 86 88 92 94 94 94 94
29 29 27 25 25 26 27 25 21 19 24 29 34 43 52 59 67 74 73 66 60 57 62 73 81 85 89 95 100 100 100 102 105 107 111 113 112 108 105 103 101 99 96 91 87 85 84 84 84 87 91 94 96 97 95 93 90 89 89 91 93 95 97

ECMWFFLT2_250_spd_123.txt.gz
Wind_Speed
39 41 44 49 53 54 54 54 57 62 63 61 60 62 63 63 62 64 66 65 65 66 66 65 61 55 55 57 55 53 52 49 47 44 41 39 38 36 34 32 29 27 26 25 24 23 21 21 20 19 17 15 13 12 10 10 11 12 12 12 13 14 15
36 38 42 46 51 55 55 55 58 61 62 63 64 64 63 64 64 65 67 67 67 68 68 68 65 59 56 57 58 57 55 52 49 46 42 38 38 39 38 35 33 31 29 27 25 24 23 22 22 22 20 18 16 14 12 10 9 10 10 11 12 13 14
33 35 39 43 47 52 55 57 58 59 62 64 65 65 65 66 67 67 68 69 68 69 71 70 69 65 59 57 59 59 57 55 52 49 44 38 37 41 41 38 35 33 32 30 27 26 26 25 24 23 23 21 19 17 15 12 11 10 10 10 11 13 14
30 32 36 40 44 48 52 57 59 59 63 66 66 67 67 67 69 70 71 70 69 70 72 72 71 69 62 57 57 59 59 58 55 52 50 44 40 43 45 41 37 36 35 33 30 28 27 27 26 25 24 23 21 19 17 15 12 11 11 10 11 12 13
27 30 33 37 41 43 47 54 59 61 64 66 67 69 70 70 71 72 73 72 70 70 72 74 75 71 64 59 56 58 61 61 59 56 55 53 48 46 46 44 40 38 37 35 33 30 29 28 28 27 26 25 24 22 20 17 15 13 12 11 11 11 11
24 27 31 34 39 42 44 50 57 62 64 65 67 71 73 74 73 73 74 72 70 70 70 74 76 71 66 62 57 57 63 64 64 61 58 58 54 48 47 47 43 40 39 38 35 33 31 30 30 30 28 26 25 24 23 20 18 16 14 13 13 12 12
22 24 28 32 37 41 43 47 53 61 64 65 68 72 75 76 75 75 76 73 71 71 69 72 77 70 65 66 61 60 66 68 67 65 61 60 59 53 50 49 46 43 41 40 38 36 34 33 32 31 30 28 26 25 24 23 21 19 16 16 16 15 14
21 22 24 28 33 38 40 44 50 58 65 66 68 72 75 76 77 77 77 75 73 73 68 69 75 66 59 67 68 65 68 70 69 67 63 61 61 58 54 51 48 46 43 41 40 39 37 35 33 31 30 29 27 25 24 23 23 22 19 18 18 17 17
19 20 22 23 28 33 37 42 48 55 63 65 67 73 75 76 78 79 79 77 74 72 67 68 74 67 59 66 70 67 67 69 69 67 65 63 62 61 57 52 50 48 45 44 43 41 39 37 35 33 31 29 28 26 24 23 23 23 22 20 20 19 19
17 18 19 20 22 27 34 40 47 54 61 65 67 73 76 77 79 80 80 78 75 72 70 72 75 70 65 68 70 67 65 68 70 68 65 64 62 61 58 54 52 51 49 47 45 43 41 40 37 35 33 31 28 27 25 24 24 24 23 23 22 22 22
16 16 17 17 19 23 30 39 47 53 60 65 69 73 77 78 78 79 80 79 77 74 73 74 74 72 70 70 70 67 65 67 71 69 66 64 63 62 60 58 55 52 51 49 47 45 44 42 40 38 35 33 31 29 27 26 26 26 25 24 25 25 24
16 15 15 16 16 19 27 37 47 52 56 61 69 74 76 77 78 80 80 79 79 77 73 74 76 75 73 72 72 70 65 65 69 70 68 66 65 64 63 61 58 53 52 51 49 47 46 45 43 41 38 36 34 32 31 29 29 29 28 27 27 27 26
17 16 15 15 16 16 21 31 43 52 55 58 67 74 77 79 79 80 81 78 79 79 74 74 78 77 73 74 77 75 67 64 65 67 68 68 66 65 63 61 58 55 52 52 51 49 49 47 46 44 41 39 37 35 34 33 33 33 32 30 29 29 28
17 16 15 15 15 15 17 24 36 49 56 58 62 71 78 80 78 79 80 77 75 76 74 74 78 79 76 76 81 79 70 64 64 64 66 68 66 64 63 61 59 56 54 53 52 51 51 49 48 47 45 43 41 38 37 37 37 36 36 34 33 31 30
18 17 15 15 15 15 16 20 29 42 53 57 59 66 76 80 79 80 81 78 73 71 72 76 77 77 77 78 82 82 72 64 64 65 65 68 67 64 64 63 60 58 56 52 51 52 53 53 51 50 48 46 45 43 41 41 41 40 39 37 36 34 32
18 18 16 15 15 15 15 18 23 33 45 54 58 63 71 78 81 81 82 83 77 72 73 77 77 74 75 78 83 86 77 65 64 68 66 66 68 64 62 62 60 59 55 51 50 53 55 57 55 53 52 50 48 47 45 44 43 42 41 40 38 36 34
18 18 17 16 15 14 15 16 19 25 35 46 55 61 68 76 82 82 83 87 85 79 74 73 76 75 73 77 82 88 84 69 63 68 70 69 69 66 64 65 62 59 55 51 52 54 55 60 61 57 56 54 52 50 48 47 46 44 44 43 40 38 36
17 18 17 17 15 14 14 15 17 20 28 38 50 59 65 71 79 83 84 86 86 82 69 64 74 79 73 74 79 86 87 75 64 67 71 71 71 69 68 69 66 62 59 54 52 50 51 58 63 61 59 58 56 54 52 50 49 48 47 46 43 42 40
16 17 17 17 16 16 15 15 15 17 24 32 44 56 62 68 75 81 84 85 84 80 70 63 73 81 77 75 76 81 87 80 68 66 68 70 73 70 69 70 69 67 66 61 56 53 51 54 59 61 61 60 58 57 55 53 52 50 49 48 46 45 43
15 16 17 16 16 16 15 14 15 17 21 27 37 51 60 65 71 77 82 85 82 79 76 73 75 79 79 77 73 77 87 83 71 67 64 65 71 73 70 70 70 71 73 69 63 60 59 59 59 60 61 61 60 59 58 56 55 53 52 51 50 49 48
16 16 16 16 16 16 16 15 15 16 19 24 32 44 56 64 71 75 79 82 81 77 78 79 77 76 77 77 74 77 86 87 78 71 66 62 67 73 73 72 72 73 76 76 69 64 65 65 63 62 62 61 61 62 61 60 59 57 55 55 54 53 52
18 17 16 16 16 15 16 17 16 15 17 22 28 39 52 61 70 76 78 81 82 79 78 79 76 71 73 77 78 78 83 89 85 78 73 66 66 72 76 76 75 73 75 78 75 68 65 63 61 61 62 63 63 63 63 63 62 60 59 57 57 56 54
19 18 17 16 16 15 16 17 17 15 15 18 23 33 44 53 64 73 77 82 83 75 71 76 76 72 72 76 79 80 82 88 89 85 80 73 67 70 76 78 78 75 74 78 80 75 70 66 62 59 60 62 64 65 65 65 65 64 62 60 59 57 56
21 20 19 17 15 15 17 18 17 16 14 15 18 26 37 47 58 66 70 79 82 70 64 73 77 75 77 78 79 82 86 89 89 89 87 81 73 72 75 76 77 77 74 76 81 81 76 72 69 64 61 62 63 65 66 67 67 67 65 62 60 58 57
22 22 20 19 17 15 17 18 18 16 15 14 15 20 32 42 52 60 64 71 79 71 66 74 79 78 83 84 81 82 88 90 88 88 89 87 79 76 77 75 73 75 77 77 79 80 79 76 73 70 67 65 64 65 66 67 68 69 68 65 62 59 58
22 22 21 21 19 16 17 18 18 16 15 15 13 16 26 35 45 57 62 68 76 73 66 72 80 82 86 88 86 83 84 87 88 86 88 89 82 76 79 79 73 72 78 81 79 77 76 75 72 70 69 68 67 66 68 69 69 70 70 67 64 61 59
22 23 22 22 21 19 17 18 18 17 16 16 13 12 18 29 41 52 59 67 78 74 62 63 75 82 83 84 85 85 83 84 88 87 87 91 86 76 76 81 79 73 74 81 82 78 76 74 72 68 67 68 69 68 68 70 70 69 69 68 66 64 62
22 23 23 23 23 22 19 18 17 17 17 17 15 12 15 25 38 47 52 62 75 76 64 57 64 76 83 81 79 81 82 84 88 89 87 89 90 80 72 77 85 80 74 78 84 83 80 78 76 73 69 68 70 69 67 69 70 69 69 69 68 67 66
23 23 23 23 24 24 22 19 17 17 18 17 17 15 15 21 34 45 49 56 69 77 73 65 61 68 79 81 76 76 79 81 85 89 87 86 90 87 75 71 80 85 80 78 82 86 85 83 82 81 78 75 74 72 69 69 70 71 71 72 71 70 69
24 23 24 24 24 24 23 21 18 18 19 19 18 17 16 18 27 40 47 52 63 75 79 76 70 66 71 78 80 79 79 79 81 86 88 86 87 89 82 73 74 81 83 79 79 84 87 87 86 85 84 82 81 79 75 71 69 69 69 71 72 72 71
26 25 25 24 24 24 24 23 20 19 19 19 19 18 19 18 20 31 41 49 60 72 78 79 78 73 73 77 80 80 81 82 82 84 87 87 85 86 85 79 74 76 80 79 77 79 84 87 88 87 85 83 82 81 80 77 74 70 69 69 71 74 75
29 28 26 25 25 25 25 24 22 20 19 19 20 20 20 20 19 23 32 43 55 68 75 79 82 83 84 84 80 77 81 86 86 87 87 86 85 85 85 82 79 77 77 78 77 77 79 82 86 87 86 83 80 79 79 81 81 78 74 71 71 74 77
32 30 28 26 26 27 27 25 23 21 19 20 21 21 21 22 22 22 26 35 49 62 72 79 84 86 90 93 87 80 81 84 85 87 89 87 86 88 87 84 83 82 80 77 77 77 77 78 81 84 84 83 82 81 79 80 81 81 79 75 73 73 75
33 31 29 28 27 28 28 27 25 23 21 20 21 23 23 23 24 23 24 29 42 56 68 78 84 84 88 96 95 86 81 81 80 83 89 89 88 90 90 87 86 87 86 83 79 77 77 77 78 79 80 81 82 83 81 78 77 78 78 77 76 74 73
35 32 31 30 29 30 30 29 27 25 23 21 22 24 24 24 26 27 27 29 38 51 64 75 83 85 86 94 99 93 85 80 76 79 87 90 90 91 93 90 87 87 89 90 87 83 80 78 77 78 79 79 79 81 81 79 76 74 73 73 74 73 72
36 34 33 32 32 32 31 31 30 27 25 24 23 24 25 26 28 29 31 32 37 46 58 69 79 86 87 91 97 98 93 85 78 78 86 91 91 91 94 94 91 88 88 91 93 92 89 83 78 77 80 80 78 78 79 79 76 73 71 71 72 71 70
37 36 34 33 33 33 33 33 32 30 28 26 25 25 26 28 29 30 32 36 38 43 53 63 72 81 87 91 95 98 97 92 84 80 84 89 91 92 95 98 97 94 91 90 92 94 95 92 83 77 77 79 80 80 80 79 78 76 74 74 74 74 73